GEFSCGP_500_meanwind_090.txt.gz
Wind_Speed
12 12 12 12 12 13 14 14 15 14 14 17 19 21 23 24 27 29 32 33 33 34 34 33 32 30 31 30 27 27 27 25 24 24 23 23 20 20 20 19 18 17 16 16
10 10 10 10 11 12 13 14 14 13 14 16 18 21 23 24 25 27 28 30 30 31 32 32 32 31 29 29 27 25 24 24 23 24 24 23 22 22 21 20 19 18 17 17
10 8 9 10 11 13 14 14 15 15 17 17 18 21 23 23 24 25 26 27 29 30 30 29 28 28 28 29 29 26 22 24 23 23 23 23 24 23 22 21 20 20 19 19
10 9 10 10 11 13 15 15 16 16 18 19 20 23 24 24 24 24 24 26 28 29 29 29 29 28 28 28 27 25 23 23 23 22 23 24 25 24 24 23 22 21 20 21
11 10 11 11 11 13 14 16 17 17 19 20 21 23 25 25 26 25 25 26 28 29 29 29 30 30 29 29 27 25 24 23 24 23 23 24 25 25 25 24 23 23 23 23
12 10 9 11 13 13 14 15 17 18 20 20 20 23 24 24 24 25 26 26 27 29 29 29 29 29 28 27 27 26 25 25 25 24 23 24 25 25 25 25 24 25 25 25
13 11 10 10 11 11 13 14 15 16 18 19 20 23 24 24 25 24 25 25 25 27 28 28 28 27 27 27 27 27 28 26 26 26 26 26 26 27 28 26 26 26 26 26
13 10 9 9 9 10 12 14 15 15 16 17 19 21 22 23 24 24 24 23 24 26 27 28 29 29 28 27 28 28 28 28 27 28 28 28 27 27 27 26 26 27 28 28
11 8 8 8 9 9 12 14 16 16 16 17 19 21 21 21 23 23 23 24 24 25 26 27 28 28 28 28 28 28 28 29 29 29 29 29 29 29 28 29 29 29 30 30
10 8 6 6 7 9 11 12 15 17 16 17 18 19 22 22 23 23 23 25 25 25 26 26 26 27 28 28 29 29 29 29 30 30 30 30 30 30 30 30 31 32 32 32
10 8 5 5 6 7 9 11 14 16 17 17 17 17 18 18 19 21 22 25 25 24 25 25 25 26 26 27 27 28 28 29 30 30 31 31 31 31 31 31 32 32 33 33
8 6 5 5 5 7 8 8 11 13 15 15 16 15 13 14 15 16 18 19 21 23 24 24 25 26 26 27 28 28 28 29 30 30 31 31 32 32 32 33 33 34 34 35
6 4 3 5 5 6 7 7 9 10 11 12 14 13 14 15 14 14 15 17 19 21 22 23 24 25 25 26 27 28 28 29 29 30 31 32 32 33 33 34 34 35 35 36
4 3 2 3 5 5 6 7 9 10 11 13 15 16 16 15 15 14 13 13 16 18 19 21 22 24 25 26 27 28 28 29 30 31 32 33 33 33 34 34 35 35 36 36
3 2 1 1 3 5 6 6 8 10 12 13 14 15 15 15 15 15 13 13 15 16 18 20 22 23 24 26 27 28 29 29 30 30 31 31 32 32 33 33 34 34 35 35
3 2 1 1 3 4 6 7 8 9 11 12 13 14 15 15 16 15 14 14 15 16 17 19 21 23 24 25 26 27 27 28 28 28 28 29 30 31 31 32 32 33 33 34
4 3 2 2 3 5 6 6 8 9 10 11 12 14 15 15 15 15 15 16 17 17 18 19 20 21 23 24 25 26 26 26 27 27 28 28 28 29 29 30 31 31 31 32
3 4 4 5 5 5 6 7 8 10 11 13 13 14 14 15 16 17 17 16 16 17 19 19 20 21 21 22 23 23 24 25 25 26 27 28 28 29 29 29 29 29 29 29
4 4 5 6 6 8 9 9 10 11 12 13 14 14 14 15 16 16 16 16 17 18 18 19 19 19 20 20 20 21 21 22 23 24 25 26 26 27 27 27 27 27 26 26
4 5 6 7 8 10 10 10 11 12 12 13 13 14 14 14 14 15 15 15 16 17 17 17 18 18 19 19 20 20 20 20 21 22 22 23 23 23 23 23 23 23 23 24
4 6 7 8 9 10 11 11 12 13 14 14 14 13 13 13 13 14 14 13 14 14 15 17 17 17 18 18 19 19 19 19 20 20 21 21 21 21 21 22 22 22 23 23
5 7 8 9 10 11 12 12 13 13 13 14 14 13 13 13 13 13 12 12 12 13 14 15 16 16 17 18 18 19 19 19 19 19 19 20 20 20 21 20 20 21 21 21
5 7 8 10 11 11 12 12 13 13 14 14 14 14 14 14 13 13 12 11 12 13 14 15 15 15 16 16 16 16 17 17 18 18 18 19 18 19 19 19 19 19 19 19
4 7 8 10 11 12 12 13 13 14 14 14 14 14 14 14 14 13 12 11 11 12 12 13 13 13 14 14 14 14 15 15 16 16 17 17 17 17 17 17 17 17 17 16
4 6 8 10 11 12 13 13 13 14 14 15 15 15 14 14 13 12 12 12 11 11 11 11 11 11 12 12 13 13 14 15 15 14 14 14 15 15 15 15 14 14 13 14
4 6 8 10 11 12 13 14 14 14 15 15 15 15 15 14 13 12 12 12 11 10 10 10 9 10 10 10 10 11 11 11 11 11 11 12 13 13 13 12 12 12 12 12

GEFSCGP_500_meanwind_096.txt.gz
Wind_Speed
17 18 19 19 20 20 20 20 20 21 23 25 26 26 26 26 28 28 28 29 30 30 29 29 28 26 25 24 24 24 24 24 24 25 25 25 27 29 29 28 28 28 27 28
16 17 18 18 18 18 18 18 19 20 22 24 25 25 24 25 26 27 28 28 29 29 28 28 28 27 26 25 25 26 25 25 25 26 26 27 28 28 28 29 27 27 28 28
14 15 16 16 16 17 17 17 18 20 21 23 24 23 22 22 23 25 26 27 27 27 28 28 28 27 26 26 26 26 26 26 26 26 27 28 28 29 30 30 30 29 28 26
13 14 15 16 16 16 15 17 18 19 21 21 22 23 22 21 22 23 23 23 25 26 27 27 27 27 27 27 26 27 27 27 27 27 27 27 28 26 26 27 28 28 27 27
12 14 15 15 15 15 15 16 17 18 20 21 21 22 21 20 20 21 22 23 25 25 26 26 26 27 27 27 27 27 27 27 26 25 26 25 25 24 25 26 26 26 27 27
12 14 15 15 15 15 15 15 16 17 18 19 19 20 20 20 20 21 21 23 24 25 25 25 25 25 26 27 27 27 27 27 26 26 25 24 22 22 23 25 26 26 27 28
12 14 15 15 15 15 15 15 15 16 16 17 18 19 19 20 20 22 22 23 24 25 25 25 25 25 25 26 27 26 26 26 26 27 26 24 22 22 24 25 25 25 26 27
12 12 14 15 14 14 14 13 14 15 15 15 16 18 18 19 20 21 21 22 23 25 26 25 25 25 25 25 26 26 26 27 27 28 27 25 24 23 24 24 24 24 25 25
13 12 13 13 12 12 12 12 12 14 14 15 16 17 18 19 19 20 21 22 23 24 24 25 25 26 26 25 26 27 26 26 27 27 27 26 24 23 24 24 25 25 25 25
13 13 12 12 11 10 10 11 12 13 13 14 14 15 16 17 17 18 19 21 22 23 22 23 25 25 25 25 25 25 25 25 25 26 26 24 24 24 24 25 26 26 25 25
12 12 11 10 9 10 10 10 11 12 14 15 15 14 13 14 14 16 18 19 20 21 23 24 25 26 25 25 25 25 25 24 24 24 25 25 24 25 25 26 26 26 26 27
10 11 10 9 8 8 9 10 11 12 12 13 14 13 12 12 13 14 14 15 17 19 20 22 23 24 24 24 25 25 24 24 25 25 25 25 25 25 25 25 26 26 26 27
8 8 8 7 6 6 7 9 10 11 11 12 12 12 12 11 12 13 13 14 15 16 17 19 21 22 24 24 25 25 25 24 24 25 25 25 25 25 25 25 26 26 26 28
7 6 6 6 6 6 7 8 9 9 10 11 12 11 11 11 11 12 12 13 13 14 15 15 17 19 20 22 23 24 24 24 24 25 25 25 25 25 26 27 27 27 27 28
6 5 5 5 6 6 7 7 8 9 10 11 11 11 10 11 11 11 12 13 13 13 13 13 15 17 18 20 21 22 23 24 24 24 24 24 24 25 25 26 27 27 27 27
5 5 5 5 5 6 6 7 7 9 10 11 10 10 10 10 10 11 11 12 13 13 13 14 15 16 18 19 21 22 22 23 23 23 23 23 23 23 24 25 26 26 27 28
4 3 4 5 6 7 7 8 9 10 10 10 10 10 10 10 11 11 11 11 12 13 13 14 15 16 17 18 19 20 22 22 22 22 23 23 23 23 23 24 25 26 26 27
3 3 4 5 7 7 9 9 9 10 10 10 11 11 10 11 11 11 11 11 12 12 13 14 15 16 17 17 18 19 20 21 22 22 22 22 22 23 23 24 24 24 25 25
3 4 5 6 7 8 9 9 10 10 10 11 11 11 11 11 11 11 11 11 12 13 13 14 15 16 16 17 18 18 18 19 19 20 20 21 22 22 23 23 23 24 24 25
4 4 5 6 8 9 9 10 10 11 11 11 11 11 11 12 11 12 12 12 13 13 13 14 15 15 16 16 16 17 17 18 18 18 18 19 21 22 22 22 23 23 24 24
4 4 5 6 8 9 10 11 11 11 12 12 12 12 12 12 11 11 11 11 12 13 13 13 15 15 15 16 16 16 16 16 17 17 18 19 20 20 20 20 21 21 21 21
3 4 5 6 8 9 10 11 11 12 12 13 13 13 12 11 11 11 11 11 11 12 13 14 14 15 15 15 16 16 16 16 17 17 17 17 18 18 19 18 19 19 19 19
2 3 5 6 8 9 10 10 11 12 12 13 13 13 12 11 11 11 11 11 12 11 12 13 14 15 14 14 15 15 15 16 16 15 16 16 16 17 17 17 18 18 18 18
2 3 5 6 8 9 10 11 12 12 13 13 13 13 13 12 11 11 11 11 11 11 11 12 13 13 13 13 13 14 14 14 15 15 15 15 15 15 15 16 16 16 16 16
1 2 4 7 8 9 10 11 12 12 13 13 13 13 13 12 12 12 12 11 10 9 10 10 10 10 10 11 11 12 12 12 13 13 13 13 13 13 13 13 13 13 13 12
1 2 4 6 8 9 10 11 12 13 13 14 14 14 14 13 12 12 11 10 10 9 9 10 10 10 10 10 10 10 10 10 10 11 11 11 11 11 11 11 11 11 10 10

GEFSCGP_500_meanwind_102.txt.gz
Wind_Speed
14 14 15 16 17 17 18 19 20 21 22 22 22 21 21 22 23 23 24 26 27 28 30 30 30 31 31 30 28 27 26 25 25 25 25 24 24 24 25 26 27 28 28 28
14 15 16 16 17 17 18 18 18 20 21 20 21 20 20 21 22 23 23 24 26 27 29 30 31 31 31 30 29 28 27 26 26 26 25 25 26 27 27 28 28 28 28 29
13 15 16 16 16 17 17 17 16 17 19 19 19 19 20 20 21 21 23 24 25 26 28 30 31 31 31 31 30 29 28 27 27 28 28 27 27 28 28 28 29 28 28 29
13 14 15 15 15 16 15 16 15 16 16 16 17 16 17 18 19 20 21 23 25 25 27 28 30 30 31 31 30 29 29 29 29 29 30 28 27 27 27 28 29 29 29 30
13 14 15 15 15 15 14 15 15 15 15 15 15 15 16 16 17 19 20 22 23 25 27 28 29 30 30 31 30 30 30 31 31 30 30 29 28 28 27 27 28 30 30 30
13 14 14 15 15 14 13 14 14 14 14 14 14 15 15 16 16 17 19 20 22 23 25 27 28 29 29 30 30 30 31 31 31 30 30 30 30 29 28 28 28 29 31 32
12 14 14 14 14 13 13 12 12 12 12 13 15 15 16 16 15 16 18 19 21 22 23 24 26 28 29 29 30 30 31 31 31 31 30 31 31 30 29 28 28 28 29 31
10 12 14 13 12 13 12 11 11 12 12 12 15 15 15 14 15 15 16 18 20 22 23 23 24 25 27 28 29 30 30 31 31 31 30 30 29 28 27 27 27 26 26 28
10 11 13 13 12 12 11 11 12 13 12 12 13 14 14 14 15 15 15 16 18 18 20 23 24 25 26 27 28 28 29 30 31 31 31 30 27 27 27 26 26 26 27 27
10 11 12 11 11 11 11 12 12 10 10 11 13 14 13 13 14 15 15 16 17 18 18 20 23 26 26 26 27 28 28 29 30 31 30 29 28 28 27 27 27 26 25 25
10 11 11 11 10 11 11 10 10 9 10 11 12 13 13 13 13 14 15 15 15 17 18 19 21 23 25 26 27 28 28 28 28 29 29 29 28 28 27 26 26 26 26 27
9 9 9 9 9 9 9 9 9 10 11 12 12 13 13 13 12 13 13 13 14 16 17 18 19 21 23 24 26 27 27 27 27 27 27 26 27 27 27 27 26 25 26 27
8 7 7 8 9 8 8 8 9 9 11 11 11 13 12 12 12 12 12 12 13 14 15 16 18 20 21 22 23 24 25 25 25 26 26 26 26 26 27 27 27 26 26 27
7 6 6 6 8 8 8 8 9 9 10 11 11 12 12 13 12 12 13 13 14 14 15 15 16 19 20 21 22 23 23 24 25 24 24 24 24 24 25 25 25 26 26 26
7 6 6 6 7 8 8 8 9 9 10 11 11 12 13 13 13 13 13 14 15 15 15 15 16 18 20 20 21 21 21 23 23 23 24 24 24 24 24 24 25 25 25 26
6 6 6 6 7 7 8 8 9 9 10 11 12 13 13 13 13 14 14 14 14 14 14 14 15 16 17 18 19 20 20 21 21 22 22 22 22 22 23 24 24 24 24 24
6 6 6 6 6 7 7 8 9 10 10 11 11 12 13 13 13 13 13 13 13 13 13 13 14 14 15 16 17 18 18 19 20 20 21 21 22 22 22 22 23 23 24 24
6 6 5 5 6 7 8 9 9 9 10 11 12 12 13 13 13 13 13 13 12 13 14 13 13 14 14 15 15 17 17 18 18 18 19 20 21 21 21 21 22 23 24 24
6 5 5 5 7 8 9 9 9 10 10 11 12 12 12 12 12 12 13 13 13 12 12 12 12 12 13 14 14 15 15 15 17 17 18 18 19 19 20 21 21 22 23 24
6 5 5 5 6 8 9 9 9 10 10 11 11 11 11 11 11 12 12 11 11 11 11 11 11 11 12 12 12 14 14 14 14 15 16 17 18 19 20 20 20 21 22 22
6 5 5 5 6 7 8 9 10 10 11 11 11 11 11 11 11 11 11 10 9 9 10 10 10 10 10 10 10 11 12 12 12 13 14 15 16 17 18 18 19 20 20 21
6 5 5 5 6 7 8 9 10 10 11 11 11 11 11 11 10 10 10 9 8 8 9 9 9 10 10 10 10 10 10 10 11 11 11 12 14 15 15 16 17 17 18 19
6 5 4 5 5 6 7 9 9 10 10 11 11 11 11 10 9 9 9 8 7 7 7 8 8 8 9 9 9 9 10 10 10 10 10 11 11 11 12 13 13 14 15 16
5 4 4 4 4 6 7 8 9 10 10 11 11 11 11 10 9 8 8 8 7 6 7 7 7 8 8 8 8 8 8 8 9 9 9 10 11 11 11 12 12 12 11 12
6 4 3 3 4 5 7 8 9 10 10 11 11 12 11 10 8 8 7 7 6 6 6 5 6 6 6 7 6 6 7 7 7 7 8 8 9 9 9 9 9 9 9 9
6 4 2 2 3 5 6 8 9 9 10 11 11 12 11 10 8 8 7 7 6 6 6 6 6 6 6 6 6 5 5 6 6 6 7 7 8 8 8 7 7 7 7 7

GEFSCGP_500_meanwind_108.txt.gz
Wind_Speed
8 7 6 7 10 11 13 15 16 16 18 22 22 21 21 24 26 25 25 26 28 28 29 31 31 32 33 34 34 32 32 32 31 30 27 24 24 24 25 26 26 26 27 27
5 6 8 11 13 14 14 14 14 15 18 21 21 21 22 23 24 25 25 26 26 28 29 30 31 32 33 34 34 34 34 33 32 30 27 26 25 25 24 25 26 27 28 29
7 7 11 13 14 13 13 13 14 16 18 21 20 20 22 22 23 24 25 25 27 28 28 29 30 30 32 33 34 34 33 33 32 30 29 27 27 27 27 25 25 27 28 30
8 9 13 14 12 13 13 14 16 17 17 17 18 20 20 22 23 24 24 25 25 26 25 27 28 29 30 32 33 33 34 33 32 32 32 30 27 27 28 27 27 27 28 29
9 11 13 13 13 14 14 15 16 16 16 16 17 20 20 23 24 23 23 24 22 23 24 25 27 29 30 31 32 33 34 34 33 32 32 31 30 30 28 28 29 29 29 28
9 11 13 13 14 15 15 14 14 13 15 17 17 19 20 24 23 24 23 21 20 22 24 25 26 28 29 29 31 32 33 33 34 34 33 32 31 31 30 29 30 30 30 29
7 10 13 14 14 14 15 15 14 15 16 17 16 19 22 24 24 24 22 20 20 21 23 24 26 27 28 29 31 32 32 33 33 33 32 32 31 31 31 31 31 30 30 30
9 12 13 14 14 14 15 15 14 16 17 17 18 20 21 21 23 21 21 20 20 20 22 24 25 27 28 29 31 32 32 33 33 33 33 33 33 32 32 32 32 32 31 31
12 14 13 14 14 14 14 13 14 16 16 18 19 20 21 20 18 19 19 20 20 21 22 23 24 26 28 29 30 31 32 33 34 33 32 32 32 32 32 32 32 32 31 31
13 13 11 12 13 13 12 13 14 14 17 18 18 18 18 18 18 18 19 19 19 20 21 23 24 25 26 27 27 29 29 30 30 31 32 31 31 31 31 31 31 30 30 30
13 13 10 10 12 12 11 12 13 14 16 18 19 17 18 18 19 19 19 19 19 20 21 23 23 24 25 26 27 28 28 29 30 30 31 31 30 30 30 30 30 30 30 29
13 13 11 10 12 12 11 11 12 13 15 17 19 20 19 18 18 18 18 19 20 20 21 22 23 24 24 25 26 27 27 28 29 30 30 31 30 30 30 29 29 29 29 29
13 13 11 10 11 11 10 10 11 13 15 16 17 18 18 18 18 18 19 20 20 20 21 22 23 23 24 25 25 26 28 28 29 30 30 30 30 31 30 29 29 29 28 28
13 12 11 11 9 9 10 10 12 14 15 16 16 17 19 19 19 19 20 19 20 21 21 22 22 23 24 24 24 25 26 27 28 29 30 30 30 30 29 28 28 28 29 29
12 12 10 9 8 9 10 11 13 14 15 17 17 18 19 18 19 19 20 21 21 21 21 22 22 22 23 23 24 24 25 25 25 26 27 29 29 28 28 27 27 28 27 26
12 11 10 8 8 9 11 12 14 14 15 16 17 18 18 20 20 21 21 22 21 22 22 22 22 23 23 23 23 23 23 23 24 24 24 24 25 24 25 26 26 25 25 24
11 10 9 8 7 9 12 13 14 15 16 17 18 19 20 21 21 21 22 21 21 21 21 21 21 21 21 21 22 21 21 21 21 21 21 22 22 22 22 22 22 22 23 23
10 10 9 8 8 10 13 12 13 15 16 17 18 18 20 21 20 20 20 20 20 20 20 21 21 20 20 20 20 19 18 18 19 19 19 19 19 19 19 19 20 20 20 20
10 10 9 9 9 10 12 12 13 16 16 17 18 19 20 20 20 20 19 19 19 19 19 18 17 17 16 15 15 16 17 16 15 16 16 16 16 16 16 16 17 18 18 18
10 9 9 10 9 11 11 13 14 16 17 18 18 19 19 19 19 18 18 19 19 18 16 16 15 14 13 13 13 13 13 12 13 14 13 13 13 13 14 14 15 15 15 15
9 9 9 10 10 12 12 13 15 16 17 18 18 18 19 18 18 18 18 18 17 16 15 13 13 12 12 12 12 11 11 11 11 11 11 11 12 13 13 13 14 14 15 16
10 10 10 10 12 13 12 14 15 16 17 17 18 18 18 17 17 17 17 17 15 14 12 11 10 10 10 10 9 8 8 8 8 8 9 10 11 12 12 13 13 14 15 15
10 10 10 11 12 12 12 13 14 15 16 16 17 17 17 17 16 16 15 14 12 11 9 8 8 9 8 8 8 8 7 7 6 7 8 9 11 11 12 12 12 13 14 14
10 10 10 11 11 11 12 12 13 14 15 16 17 17 17 16 15 14 13 12 11 9 8 7 7 7 8 8 8 8 8 7 7 8 8 8 9 10 10 11 12 12 12 13
10 10 10 10 10 10 10 11 12 13 14 15 16 16 16 15 13 12 11 10 9 8 7 7 7 7 7 7 8 8 7 7 7 8 8 9 9 9 9 9 9 9 9 9
11 10 10 9 9 10 10 11 12 13 14 15 15 15 15 13 12 11 10 9 8 7 7 7 7 7 7 6 7 7 7 6 7 7 7 8 8 7 7 7 7 7 7 8

GEFSCGP_500_meanwind_114.txt.gz
Wind_Speed
12 12 11 11 11 12 11 10 9 9 11 14 15 17 19 20 21 22 22 23 23 23 25 27 28 29 30 31 31 31 31 32 30 29 30 28 28 27 25 25 26 25 24 25
12 12 11 12 11 11 11 11 10 11 12 15 18 21 21 22 23 23 23 23 24 25 25 27 28 29 29 29 30 30 30 31 31 30 29 29 29 27 27 25 25 24 24 23
13 13 12 11 10 11 11 11 11 13 15 18 20 22 24 24 23 24 23 23 22 23 24 26 27 28 28 29 30 30 29 29 30 30 30 29 29 28 26 25 25 24 23 22
14 13 12 11 10 10 11 11 12 14 17 19 20 23 23 24 23 23 22 21 20 20 22 23 25 26 27 28 28 29 29 29 29 30 29 29 28 27 26 24 23 22 23 24
13 13 12 12 11 11 12 11 13 15 16 17 19 22 22 22 21 21 23 22 21 21 22 24 25 25 27 28 28 28 28 28 29 29 29 30 30 29 28 27 25 23 24 25
12 12 11 11 11 12 13 14 15 15 16 16 17 21 21 21 22 23 25 24 23 22 22 23 24 24 25 26 27 26 28 28 28 28 29 29 29 29 28 27 26 26 26 25
11 11 11 11 11 12 14 15 15 14 15 15 16 19 19 19 20 21 21 20 21 23 22 22 22 22 23 24 24 25 26 27 27 28 27 28 28 28 29 28 28 27 27 27
10 10 10 11 12 12 13 14 15 15 14 14 15 16 16 18 20 20 18 18 19 19 19 19 19 21 22 24 24 25 25 25 26 27 28 28 29 30 29 29 28 28 27 27
9 9 10 11 13 13 13 14 14 15 14 14 14 15 17 18 17 16 16 16 17 16 16 18 19 21 22 24 24 25 25 26 26 27 27 28 28 28 28 28 27 26 26 26
11 11 10 10 12 13 13 12 13 14 14 15 14 16 18 17 15 15 16 16 16 16 17 18 19 20 21 22 23 24 25 25 26 26 26 26 27 27 27 27 27 26 24 24
12 12 11 11 12 13 12 13 13 13 14 15 15 16 17 16 15 16 16 15 16 17 17 18 19 20 21 21 21 23 22 23 24 24 25 26 26 26 26 26 25 25 25 25
12 12 12 12 12 11 11 11 11 12 14 14 15 16 16 16 16 16 16 16 16 17 17 18 19 20 21 21 21 22 22 23 23 24 24 25 25 26 26 25 25 25 25 24
12 12 12 11 11 11 11 11 12 12 13 14 15 16 16 16 15 16 16 17 18 18 19 19 19 20 21 21 22 22 23 23 23 24 24 25 25 26 26 25 25 24 24 24
12 11 11 10 11 11 11 11 12 12 12 14 15 16 17 16 16 17 18 18 19 20 20 20 20 20 20 21 21 22 22 22 22 22 23 23 24 24 25 25 25 24 24 24
12 11 10 10 10 10 11 11 11 11 13 14 15 17 18 18 19 19 20 20 20 21 21 21 21 21 21 20 20 21 21 20 21 21 22 22 22 23 23 23 23 23 23 22
14 13 11 10 11 11 11 10 11 12 13 14 16 17 18 19 20 20 20 21 21 21 20 20 20 20 20 20 20 19 19 19 19 20 20 21 21 21 21 21 21 20 20 20
13 12 10 10 11 12 11 11 12 12 13 15 17 18 19 19 19 20 20 20 20 20 21 21 20 20 20 19 18 18 17 17 16 16 17 17 17 17 17 17 18 18 18 19
14 12 11 11 11 12 10 11 11 12 13 14 16 17 18 18 19 20 19 19 19 20 20 19 19 18 17 16 16 15 15 14 14 13 13 12 13 12 13 14 14 14 15 15
14 12 11 11 11 10 8 9 11 12 13 14 16 17 18 19 19 19 19 20 19 18 18 18 17 16 15 14 14 14 13 13 12 11 11 10 11 11 11 12 12 12 12 12
13 12 10 10 10 9 8 9 10 11 13 15 17 18 18 18 19 19 19 19 18 17 16 16 15 13 12 12 11 11 11 10 10 9 9 9 9 9 9 9 9 9 10 10
13 11 10 9 9 8 8 9 11 12 14 16 17 18 18 18 18 18 18 17 16 16 15 14 13 11 9 9 8 8 7 7 7 6 7 7 7 7 7 6 7 7 8 9
13 11 10 9 8 8 9 10 11 12 14 16 17 17 18 17 18 18 17 16 15 14 13 11 10 8 7 7 7 6 5 5 5 5 6 6 5 5 5 5 6 6 7 8
13 11 10 9 7 8 8 9 11 12 14 15 16 16 16 17 17 16 15 14 13 12 11 9 7 7 7 6 6 5 4 4 3 3 3 3 4 4 5 5 5 6 6 6
12 10 8 7 7 7 8 9 11 12 13 14 15 15 15 16 16 15 14 12 11 10 9 8 6 6 6 5 5 5 4 4 4 3 3 3 3 3 3 3 3 4 4 5
11 9 7 6 6 7 7 8 10 11 12 13 14 15 15 15 14 13 12 11 10 9 8 7 6 6 5 5 5 5 5 4 4 3 3 3 3 3 3 3 3 3 4 4
9 8 7 6 5 5 7 7 8 10 12 13 13 14 14 14 13 12 11 10 9 8 8 7 7 6 6 6 6 5 5 5 4 4 4 3 3 3 3 3 3 3 3 3

GEFSCGP_500_meanwind_120.txt.gz
Wind_Speed
13 14 14 14 15 15 15 15 16 16 17 18 18 19 20 20 20 20 21 22 22 23 24 26 26 27 27 27 28 28 28 28 28 27 28 28 28 29 30 30 29 28 28 27
14 15 15 16 16 16 15 15 16 16 16 16 17 18 19 20 20 21 21 22 22 23 24 25 26 27 27 27 27 27 27 27 27 27 27 27 27 26 28 29 29 29 28 27
15 15 16 16 16 15 15 15 15 15 16 16 17 18 18 19 20 21 22 22 23 23 23 24 25 25 25 26 27 26 25 25 26 27 26 26 27 26 26 27 28 28 27 26
16 16 16 15 15 15 15 15 15 15 16 16 17 18 17 18 18 19 20 21 23 24 24 24 25 24 25 26 27 26 25 25 26 26 27 27 26 25 25 26 27 28 28 27
16 15 14 14 15 15 15 16 16 16 17 18 18 19 17 18 18 19 20 21 23 24 25 25 25 25 25 26 26 26 25 26 26 26 27 26 25 25 25 25 26 25 25 26
15 14 14 14 15 15 15 16 17 17 17 18 18 19 19 18 19 20 21 21 22 23 24 24 24 25 25 26 26 25 25 26 26 26 26 25 25 25 25 25 24 24 24 25
15 14 14 15 15 15 15 15 16 17 17 17 17 18 18 18 18 19 20 21 21 21 21 21 22 23 23 24 25 24 25 25 25 26 26 25 25 25 25 25 24 24 25 26
14 14 14 14 14 14 14 15 17 17 17 16 16 18 17 17 18 19 19 18 18 19 20 20 20 21 22 22 22 23 24 24 25 26 26 27 26 26 26 26 25 25 26 26
14 14 14 14 14 14 15 15 15 17 16 16 16 16 16 16 17 17 17 18 18 18 19 19 19 20 21 21 21 22 23 24 25 25 26 27 25 25 25 25 25 25 25 25
13 13 14 15 15 14 14 14 15 15 16 16 15 14 15 15 15 15 16 17 18 18 18 18 19 19 19 20 21 22 23 24 25 25 25 25 25 26 26 26 26 26 25 25
14 14 14 15 15 15 14 14 14 15 15 16 15 13 13 13 15 16 16 17 17 18 18 19 20 20 21 21 21 22 24 24 25 25 25 26 26 26 25 25 26 27 27 26
16 16 15 15 14 14 13 13 13 14 15 15 15 13 13 14 15 16 16 16 17 18 19 20 21 22 22 22 23 23 24 25 25 25 25 25 25 25 25 26 27 27 27 27
15 16 15 15 14 14 13 13 13 13 14 15 15 14 14 15 16 17 18 18 19 20 21 22 22 22 23 24 24 25 25 25 25 25 24 24 24 24 25 25 25 25 26 26
14 15 14 14 14 13 13 13 14 14 15 14 15 15 15 16 17 18 19 21 22 22 23 23 23 24 24 24 25 25 25 25 25 24 24 24 24 24 24 24 24 24 24 24
14 14 15 15 14 14 13 14 15 15 15 16 16 17 17 18 19 19 21 22 22 23 24 24 25 25 25 24 24 24 24 24 24 23 23 22 22 22 22 22 22 22 22 23
14 15 15 14 15 14 14 14 15 15 15 16 16 17 18 19 20 21 22 23 24 25 25 25 25 25 25 24 24 23 22 22 22 22 21 20 20 19 19 19 19 19 20 20
16 16 15 14 15 15 13 13 14 14 15 16 17 18 19 20 21 22 23 24 24 24 24 25 25 24 24 23 22 21 20 20 20 20 19 18 17 16 16 16 16 16 17 18
16 16 16 15 15 15 13 13 13 15 15 17 18 19 19 20 22 23 23 23 23 23 24 24 24 23 22 21 20 19 19 18 17 16 16 15 15 15 15 14 14 14 15 16
16 16 16 16 15 13 13 13 14 14 15 17 18 19 20 21 22 22 22 22 22 22 23 23 22 21 20 19 18 17 16 15 14 14 13 12 13 13 13 13 13 14 13 13
14 14 15 15 14 13 12 12 13 14 15 16 18 19 20 21 21 21 21 21 21 21 21 20 20 19 18 17 15 14 13 12 12 11 11 10 10 11 11 10 11 11 11 10
14 14 14 13 13 12 11 11 13 14 15 16 18 19 19 19 19 19 19 20 20 19 19 18 17 16 14 13 12 11 10 10 10 9 9 9 9 8 8 8 8 9 8 8
14 14 13 12 13 11 12 12 13 14 15 16 16 17 17 17 17 18 18 18 18 17 17 15 14 12 11 10 9 9 9 8 8 7 7 6 7 7 7 6 6 6 7 7
13 13 12 11 11 11 11 12 13 14 15 15 15 16 16 16 17 17 17 16 15 14 14 12 11 10 8 7 6 6 6 5 5 4 4 3 3 3 3 4 4 5 5 5
12 12 12 11 11 11 11 12 12 12 13 14 15 15 16 16 16 16 15 14 12 11 11 10 9 8 7 6 6 5 5 4 4 3 3 3 3 3 3 3 3 3 2 2
12 11 11 10 10 10 10 10 10 11 12 13 14 15 15 15 14 13 13 12 10 9 9 8 7 6 5 5 5 5 5 5 4 4 4 4 3 3 3 3 4 3 3 2
11 11 10 10 9 9 9 9 10 11 11 11 13 14 13 13 12 11 11 10 9 8 8 7 6 6 6 6 6 6 6 6 6 5 5 5 5 5 5 5 5 5 4 4

GEFSCGP_500_meanwind_126.txt.gz
Wind_Speed
11 11 11 12 12 13 13 12 13 14 13 13 14 15 15 16 17 18 19 20 20 21 22 23 23 24 23 23 24 24 24 25 25 25 24 25 26 27 27 27 28 28 28 29
11 12 12 11 11 11 10 10 12 13 12 12 13 14 15 16 17 18 19 20 21 22 23 23 24 24 24 25 25 25 24 25 25 25 25 24 25 27 28 28 29 30 30 30
11 12 11 11 10 10 10 10 11 12 11 11 12 14 15 15 16 17 18 20 21 22 23 23 24 25 25 26 26 26 25 26 25 25 26 26 25 26 27 28 29 29 30 30
11 11 10 10 10 9 10 11 11 11 10 11 11 12 15 16 17 18 19 20 20 21 22 23 24 25 26 27 27 27 27 27 27 26 26 26 27 26 26 27 28 28 28 29
11 10 10 10 10 10 11 11 10 11 11 11 12 12 15 17 17 18 19 20 20 21 22 23 24 25 26 26 27 27 27 28 28 28 27 27 27 27 27 27 27 27 27 28
9 9 10 11 10 11 10 10 11 11 10 11 13 13 14 17 17 18 19 19 20 21 21 23 24 24 24 25 26 26 27 28 29 29 28 28 28 28 28 28 28 28 28 28
9 10 10 10 10 11 10 9 9 9 10 11 15 14 15 17 17 18 19 19 20 20 21 21 22 22 23 23 24 25 26 27 28 28 28 28 28 28 28 28 28 29 28 28
9 10 11 10 11 11 11 10 10 11 11 12 15 14 15 16 17 17 18 18 18 19 19 19 20 21 22 22 23 24 25 25 26 27 27 27 28 28 28 28 28 29 28 28
11 12 11 11 11 11 11 12 12 12 12 11 12 15 16 16 16 16 16 17 18 18 18 18 19 20 20 21 22 23 24 25 26 26 27 26 27 28 28 28 29 29 29 29
11 12 11 11 11 12 12 13 13 11 11 11 12 13 14 14 14 15 15 16 17 17 17 18 19 19 19 20 21 22 23 24 25 25 26 27 27 28 28 28 29 29 29 30
10 11 12 12 12 12 12 13 12 12 12 12 12 12 15 15 14 14 14 15 16 17 18 19 20 21 21 21 22 23 24 24 25 26 26 27 28 28 28 28 29 29 29 30
12 12 13 13 13 13 13 13 12 12 12 12 12 13 15 15 14 15 15 16 17 19 19 20 21 22 23 23 24 24 25 25 25 25 26 27 27 27 28 28 29 29 29 29
13 14 13 12 13 14 14 14 13 12 12 12 13 14 16 16 16 16 17 18 19 21 22 22 23 24 24 25 25 25 26 26 26 26 26 26 26 26 27 28 27 27 28 28
14 15 14 14 14 14 13 14 14 13 13 13 14 15 16 17 18 18 20 21 21 22 23 24 24 25 25 26 26 26 26 26 26 26 25 25 25 25 25 25 25 25 25 25
15 16 16 15 15 14 13 14 14 14 13 14 14 15 17 18 19 20 21 21 22 23 24 25 25 26 26 26 26 26 26 25 25 24 23 23 23 22 22 23 23 22 22 22
14 14 14 14 14 14 14 14 14 14 14 14 15 17 17 18 19 20 21 22 23 25 26 26 26 26 26 25 25 26 25 24 23 22 22 21 20 20 19 20 20 20 20 20
14 14 13 13 14 13 13 14 14 14 14 15 16 17 17 18 19 20 21 23 24 25 26 26 25 25 25 25 25 24 23 22 21 21 20 19 17 16 16 16 17 18 18 19
14 14 13 13 13 13 13 13 13 14 14 14 15 16 17 19 19 20 21 23 24 25 25 24 24 24 24 24 23 21 20 20 20 19 18 17 16 16 15 15 15 15 16 16
14 14 13 12 12 12 12 13 13 14 14 14 15 16 17 18 20 20 22 23 23 23 23 23 22 22 21 20 19 18 18 18 17 16 15 14 14 14 13 13 14 13 13 14
13 13 13 12 11 12 13 12 12 12 13 13 15 15 17 18 20 20 20 21 21 21 21 20 19 19 19 18 17 16 16 15 14 13 12 12 12 11 11 10 11 11 11 11
11 12 12 11 11 12 11 10 11 12 13 14 15 16 17 18 18 19 19 20 20 20 19 17 17 17 16 16 15 14 13 12 10 9 9 9 9 8 8 7 7 8 8 8
9 10 10 10 10 11 10 10 11 12 13 14 15 16 17 17 17 17 18 18 18 18 16 15 15 14 13 13 13 11 10 8 7 6 6 6 6 5 5 5 5 5 5 6
9 9 9 9 10 10 9 10 11 12 13 13 15 16 16 16 16 16 16 17 17 15 14 13 12 12 11 11 10 9 7 6 5 4 3 3 3 3 3 2 2 3 3 4
9 9 9 9 9 10 10 11 11 11 12 13 14 14 15 14 14 15 15 15 14 13 12 11 10 9 9 9 8 7 6 5 4 3 3 3 2 2 2 2 2 2 1 1
9 9 9 9 9 9 9 10 11 11 12 12 13 13 13 13 13 13 13 12 11 10 10 10 9 8 7 7 7 7 6 6 5 5 5 5 5 5 5 4 5 5 4 4
8 9 9 8 9 9 9 9 9 9 10 11 11 12 11 11 11 10 10 9 9 9 9 9 8 7 7 7 7 7 7 7 7 7 7 7 7 7 7 7 7 7 7 7

GEFSCGP_500_meanwind_132.txt.gz
Wind_Speed
10 10 10 9 11 10 10 11 13 12 12 11 14 16 17 16 17 16 16 17 18 19 20 21 21 22 23 24 24 25 25 26 27 27 27 27 27 27 27 27 28 28 28 29
8 8 9 11 13 13 13 12 13 15 15 11 14 16 17 17 16 18 18 18 19 20 20 21 21 22 23 24 24 26 26 26 27 28 28 28 28 28 28 28 28 29 29 30
7 7 10 13 14 14 13 14 15 15 13 11 12 15 17 17 16 18 19 20 20 20 20 20 21 21 23 24 25 26 27 28 28 29 29 29 30 29 29 29 29 30 29 29
8 9 10 11 12 12 12 13 14 13 11 12 12 15 18 18 18 18 19 19 20 20 20 20 21 22 23 24 24 25 26 28 29 29 30 30 31 31 31 31 31 31 30 29
8 9 10 10 11 12 11 11 12 12 13 14 15 16 21 22 19 19 18 18 19 20 21 22 22 23 24 24 25 26 27 28 29 30 30 31 31 32 32 32 32 31 29 29
10 10 11 10 11 13 11 10 10 12 13 16 18 19 20 22 19 19 18 19 19 20 22 22 23 24 24 24 25 26 27 28 29 29 29 30 31 32 32 32 32 31 30 29
7 9 10 11 12 12 11 11 11 13 15 18 19 18 20 20 19 19 18 19 20 21 23 23 23 24 24 25 26 27 28 28 28 29 29 30 30 30 31 31 31 31 30 30
10 11 10 9 10 11 10 11 13 14 15 13 13 16 19 18 17 19 19 19 20 21 22 22 23 23 24 25 26 26 27 27 26 27 28 28 28 29 29 29 30 29 29 29
9 10 9 10 10 11 11 11 11 13 14 15 15 17 16 17 16 16 17 19 20 21 21 22 22 23 24 24 25 25 26 26 25 25 26 27 27 28 28 28 28 28 28 29
9 9 9 9 10 11 11 12 12 13 13 14 13 16 20 17 15 15 17 20 21 21 22 22 23 23 24 24 24 25 25 25 25 26 26 27 27 28 28 28 29 28 28 29
12 13 11 11 11 11 12 12 13 13 13 14 15 19 20 18 17 18 20 21 21 22 23 23 24 25 25 25 25 25 26 26 26 27 27 28 28 28 28 28 29 29 29 30
14 15 15 13 13 13 13 13 13 14 14 15 16 20 21 20 19 20 20 21 22 24 24 25 26 26 26 26 26 26 27 27 27 27 28 28 29 28 28 28 28 29 29 29
15 15 15 15 15 14 13 13 14 14 15 16 17 20 21 20 20 21 22 23 23 25 25 26 27 27 27 27 27 27 27 28 28 28 28 28 28 28 28 27 27 27 28 28
16 16 15 14 12 12 12 12 13 15 15 17 18 20 22 23 24 23 22 22 23 25 26 26 27 27 27 27 28 28 28 29 29 28 28 27 27 27 27 26 26 25 25 25
14 14 13 13 12 13 14 14 15 16 17 19 20 22 24 24 25 23 22 23 24 25 25 26 27 27 28 28 28 29 29 29 28 28 27 26 25 24 24 23 22 22 22 22
13 14 13 13 13 13 15 16 16 17 18 18 19 21 22 23 23 24 25 23 24 25 25 26 27 27 27 28 29 29 29 28 27 26 24 23 22 22 21 21 21 21 21 20
13 13 13 12 12 14 14 15 16 17 17 17 19 21 22 23 23 23 23 23 24 25 25 26 26 27 27 28 28 27 26 26 25 23 22 21 20 20 19 19 18 18 18 18
13 13 12 12 12 14 13 14 14 16 17 18 20 22 22 22 22 22 23 24 24 25 26 25 26 26 26 26 26 25 24 23 22 20 19 19 18 18 17 17 17 17 17 17
12 12 12 12 13 14 15 14 15 16 17 18 20 21 21 20 21 22 23 24 25 25 24 25 25 25 24 24 23 22 21 20 19 18 18 17 17 16 15 14 15 14 15 15
10 11 12 13 13 14 15 15 15 16 17 17 19 20 21 20 21 22 22 23 23 23 23 23 22 22 21 21 20 20 19 18 17 16 15 15 15 15 13 12 12 12 13 14
9 10 11 12 14 15 14 15 14 15 16 16 18 19 20 20 19 20 21 22 22 22 21 21 20 19 18 18 18 18 17 16 15 14 13 13 13 12 10 10 10 10 10 11
9 10 11 12 14 14 14 14 14 14 15 15 17 18 19 19 19 19 20 20 20 19 18 17 17 17 17 16 16 16 15 14 13 12 11 11 10 9 9 8 8 8 8 8
9 10 11 11 12 12 12 13 13 13 14 15 17 17 18 18 18 18 18 17 16 16 16 15 15 15 15 15 14 13 13 12 11 9 9 8 6 6 6 5 4 4 4 4
9 9 11 11 12 12 12 12 13 13 13 15 16 16 16 16 16 16 15 14 14 14 13 13 13 13 13 13 12 12 12 10 9 7 6 6 6 5 4 4 3 3 3 3
9 9 10 11 11 11 12 12 12 12 13 13 15 14 14 15 14 14 13 13 12 12 12 11 12 12 12 11 11 11 10 9 7 7 6 6 6 6 6 6 5 5 5 5
7 8 9 9 9 10 11 11 11 11 11 12 13 12 12 12 12 12 11 11 11 11 11 10 11 11 10 10 10 9 9 8 7 7 7 7 8 8 8 8 9 9 9 9

GEFSCGP_500_meanwind_138.txt.gz
Wind_Speed
14 14 14 14 15 15 13 12 11 10 11 13 12 12 11 11 12 13 14 15 15 15 15 15 15 16 17 17 17 18 18 19 20 21 22 22 23 25 26 26 27 27 27 28
14 14 14 15 15 14 12 11 11 11 12 13 13 14 14 15 16 16 15 14 13 13 14 14 15 15 16 17 18 19 19 20 21 22 22 23 24 25 26 27 27 28 29 29
14 14 15 15 14 13 12 11 10 11 11 13 15 16 16 16 17 18 15 13 12 13 13 14 14 15 17 18 19 20 20 21 22 22 23 24 25 25 26 27 27 28 29 29
14 14 15 15 15 14 13 13 11 11 12 13 15 15 15 15 17 17 16 14 12 13 14 14 15 17 18 18 19 20 21 22 22 23 23 24 25 26 26 27 27 27 28 29
12 12 14 15 14 14 14 15 15 15 15 15 16 17 17 18 19 19 19 17 14 13 14 14 15 17 17 18 19 20 21 22 23 24 24 25 26 26 26 27 27 27 28 28
12 12 12 13 14 15 15 15 16 17 18 18 17 20 19 19 20 20 19 16 14 14 14 15 16 17 18 20 20 21 22 23 24 25 25 26 27 27 28 28 27 27 27 27
11 11 11 11 13 13 14 15 16 17 18 17 17 20 19 19 19 18 16 16 16 15 14 15 16 17 18 20 21 22 23 23 25 25 26 27 27 27 28 28 27 27 27 26
10 11 11 12 12 12 13 14 14 15 16 15 16 17 16 16 16 15 16 16 16 15 15 16 16 18 18 20 21 22 24 25 25 26 27 27 27 27 27 27 27 27 27 27
9 9 11 12 13 13 12 13 13 15 15 15 16 16 15 14 15 16 16 16 16 15 15 16 17 19 19 21 22 23 24 25 26 26 26 27 27 27 28 28 28 28 28 28
9 10 11 13 13 13 12 12 14 14 15 16 15 15 15 15 14 14 15 15 16 16 15 16 18 19 21 22 22 23 24 25 26 26 26 27 27 28 28 28 28 28 28 27
8 10 11 12 13 13 13 13 14 15 16 16 16 15 15 16 15 15 16 17 17 17 17 18 19 20 22 23 23 23 24 25 26 26 26 27 28 28 28 28 27 27 27 26
9 10 11 13 13 14 14 15 15 16 17 17 18 17 16 16 17 17 17 18 19 19 19 19 20 22 22 23 24 24 25 26 26 26 27 27 27 26 26 26 26 26 26 26
11 12 12 13 14 15 15 15 16 16 17 18 19 19 17 17 18 19 20 20 21 21 21 22 22 22 23 24 25 25 25 26 26 26 26 26 26 25 25 25 25 25 25 25
12 13 14 14 13 14 15 15 16 16 17 17 18 18 17 18 20 21 21 21 21 21 21 21 22 23 23 25 25 25 26 26 26 26 26 25 25 25 24 24 24 23 23 24
12 13 13 14 14 14 15 15 16 17 17 18 18 18 18 18 20 21 21 21 20 21 21 22 23 24 24 25 25 25 26 26 26 26 25 25 24 24 23 22 22 22 22 23
12 13 12 12 13 14 16 16 16 16 16 17 18 18 18 19 20 20 21 21 21 22 22 22 23 23 24 25 25 26 26 26 25 25 24 23 22 21 21 20 20 20 20 21
11 12 12 12 12 13 14 13 14 15 16 16 17 17 18 19 19 19 20 22 22 21 20 21 22 23 24 25 25 25 25 24 23 22 21 20 20 19 18 18 18 18 18 19
11 11 12 11 12 13 12 13 13 13 14 15 17 18 19 19 19 19 20 21 21 21 20 21 22 23 23 23 23 22 22 21 21 20 19 18 18 17 16 16 16 16 16 17
9 9 9 10 10 10 9 10 11 12 14 15 16 17 17 18 18 19 20 20 20 20 20 20 20 20 21 20 19 19 18 18 18 17 16 16 15 15 14 14 14 15 15 14
7 7 8 9 9 8 7 7 8 10 12 13 14 14 15 16 17 17 18 19 18 19 19 19 18 18 17 17 17 16 16 16 15 14 14 14 13 13 12 12 13 13 13 12
5 6 6 7 8 8 8 8 9 10 12 12 13 14 15 16 16 16 17 17 17 17 17 17 17 16 16 15 15 15 14 14 13 13 13 12 12 11 11 11 10 10 9 8
5 5 6 6 8 8 8 9 10 11 11 11 12 13 14 15 15 15 15 15 14 14 15 15 15 15 14 14 13 13 13 12 12 12 11 11 10 10 9 9 8 8 6 5
4 5 6 6 7 7 8 9 9 9 10 9 10 11 12 12 13 13 13 13 13 14 14 14 15 14 13 12 11 11 11 11 10 10 10 9 9 8 8 7 7 6 5 5
4 5 6 6 6 8 9 9 9 8 9 9 9 10 11 11 11 12 12 12 12 12 13 13 12 12 11 10 10 10 10 9 9 9 9 9 8 8 8 8 7 7 7 7
4 5 6 6 6 6 7 8 8 8 7 8 8 9 10 10 10 11 11 11 11 11 11 11 10 10 10 10 9 9 9 9 9 9 9 9 9 10 10 10 10 10 10 10
5 6 7 7 7 7 7 7 7 7 6 7 8 8 9 9 9 9 10 10 10 10 10 10 9 10 10 10 10 9 9 9 9 9 10 10 11 11 12 12 12 12 12 12

GEFSCGP_500_meanwind_144.txt.gz
Wind_Speed
16 17 18 19 19 19 19 19 19 19 19 18 17 16 16 15 15 14 14 15 16 17 17 17 16 16 16 17 17 17 18 18 18 19 20 20 20 21 21 22 24 25 26 27
16 18 18 18 19 18 18 19 19 18 17 16 16 16 15 14 12 14 14 15 15 16 17 17 16 16 16 17 17 18 18 18 19 20 21 21 20 20 21 22 23 24 24 26
16 16 17 17 17 17 18 17 17 17 17 16 16 16 14 12 12 13 13 15 15 16 16 16 17 18 17 17 17 17 18 18 19 20 20 21 21 21 22 23 23 24 25 26
15 16 16 17 17 16 16 16 16 16 16 16 16 15 14 12 12 13 14 14 14 14 15 17 17 18 19 20 19 19 19 19 20 20 21 22 22 23 23 24 24 25 26 26
15 15 16 16 16 16 16 17 17 16 15 16 15 16 14 13 12 13 13 14 15 15 17 17 18 18 19 20 21 21 21 21 21 22 22 23 24 24 24 25 26 26 26 27
14 15 16 16 16 16 16 16 17 16 15 15 15 16 14 13 13 13 13 14 15 16 16 16 17 19 19 20 21 22 22 22 22 23 23 24 25 25 25 26 26 27 27 27
13 14 15 17 17 17 17 16 16 16 16 16 15 16 15 13 13 14 14 14 15 15 15 16 16 18 19 20 21 22 23 23 24 24 24 25 26 26 26 26 27 28 27 27
11 12 14 15 16 17 17 17 16 16 16 16 16 16 15 14 14 14 15 15 15 15 15 16 17 18 20 21 21 22 23 24 24 25 26 26 27 27 28 28 28 28 28 28
10 11 12 15 16 16 16 16 16 17 17 17 16 15 14 14 14 15 15 15 15 15 16 17 19 20 21 21 21 22 23 24 25 25 26 27 28 29 29 29 29 28 28 28
9 10 12 13 15 15 17 17 17 17 17 17 16 16 15 14 14 14 15 15 16 17 18 19 20 22 22 21 22 23 24 25 25 26 26 27 28 28 29 28 28 28 27 27
10 11 11 13 13 14 15 16 17 17 17 17 17 16 15 15 15 16 16 17 18 19 19 20 21 22 21 22 22 23 24 24 25 26 26 26 27 27 28 27 27 27 27 27
9 10 11 12 13 14 15 16 16 16 17 17 18 17 16 16 16 16 17 18 19 20 20 20 21 22 23 23 24 24 24 25 25 25 25 26 26 27 27 26 26 26 26 26
10 11 11 12 13 14 15 16 17 16 16 17 17 17 17 16 16 16 17 18 19 20 21 22 22 22 22 23 24 24 24 25 25 25 25 25 25 26 25 25 25 25 24 25
12 12 12 13 14 14 15 16 16 17 17 17 17 17 16 17 16 17 18 19 20 20 20 21 22 22 22 22 23 24 24 24 24 25 25 25 24 24 24 23 23 23 23 23
13 13 13 13 13 14 15 16 16 16 17 17 17 17 17 18 18 19 19 20 20 21 21 21 22 22 23 23 22 22 23 23 24 25 24 23 23 22 22 22 22 21 22 22
13 13 13 13 12 13 13 14 15 16 16 17 17 17 17 18 18 19 19 20 20 20 20 21 22 22 23 22 22 22 22 23 23 22 21 21 21 21 21 21 21 21 21 21
13 13 13 12 12 12 12 12 13 14 15 16 16 17 17 17 18 18 19 19 19 19 20 20 20 20 20 20 20 20 20 20 20 19 19 20 19 19 19 19 19 19 20 20
11 12 12 12 12 12 12 12 13 14 15 15 17 16 16 17 17 17 18 18 18 18 17 18 19 19 19 19 19 18 18 17 17 17 17 17 17 17 17 17 16 16 16 16
8 9 11 11 11 11 11 12 13 13 13 14 15 16 16 15 16 16 17 16 16 16 16 17 17 17 17 17 16 16 16 15 15 15 15 15 16 16 15 15 14 14 14 14
7 8 9 10 10 11 10 11 11 12 12 11 12 13 13 14 15 15 15 14 14 15 15 16 16 15 15 14 14 14 14 14 14 15 15 15 15 14 13 13 13 13 13 13
6 7 7 8 9 9 9 10 10 10 10 10 11 11 12 14 13 12 12 13 13 13 13 13 14 14 13 13 13 12 12 12 13 13 13 13 12 12 12 12 12 12 12 11
5 5 5 6 6 6 8 8 9 9 9 9 10 10 11 11 11 11 11 11 11 11 11 12 12 13 12 12 12 11 10 11 11 11 11 11 11 11 11 11 11 11 10 8
4 5 5 5 5 6 7 7 8 8 8 8 9 9 9 10 11 11 10 10 11 10 11 11 11 12 12 11 11 10 9 9 10 9 9 10 10 10 10 10 10 9 8 7
5 5 5 5 6 6 7 8 8 8 7 7 8 8 9 9 9 9 9 10 9 9 9 10 10 10 11 10 10 10 9 9 9 9 9 10 10 10 10 10 9 9 8 8
5 5 5 6 6 6 7 8 8 8 7 8 8 8 9 8 7 8 8 8 8 8 9 9 9 9 10 9 9 9 9 8 8 8 9 10 10 11 11 11 11 10 10 9
5 5 5 5 5 6 7 7 7 7 7 8 8 8 8 8 8 8 8 8 8 8 8 8 9 9 9 9 8 8 8 8 8 8 9 9 10 10 11 11 11 11 11 11

GEFSCGP_500_meanwind_150.txt.gz
Wind_Speed
12 13 14 15 15 15 16 15 14 14 14 15 16 16 16 16 17 17 17 18 18 19 18 18 18 17 18 17 17 18 19 20 21 21 21 21 22 23 24 25 25 26 26 27
12 13 14 14 14 14 14 14 13 14 13 14 14 15 15 15 16 16 16 16 17 18 18 18 19 19 18 18 18 19 20 20 21 21 22 23 24 25 25 26 27 27 27 28
12 14 14 13 13 13 13 13 13 14 14 14 13 13 14 15 15 15 15 16 17 18 18 19 19 18 18 19 20 20 20 20 21 23 24 24 24 25 26 26 27 27 27 27
12 13 13 12 12 12 12 13 13 13 13 13 12 12 15 16 16 15 15 16 16 16 17 17 18 19 19 20 21 21 21 21 22 23 23 24 24 25 26 26 27 28 28 28
11 11 11 11 12 12 13 13 12 12 12 12 13 12 14 16 15 14 15 16 16 16 17 17 18 19 19 20 21 21 21 22 23 23 24 25 25 25 26 26 27 28 28 28
10 11 12 12 12 13 12 12 12 12 11 11 12 12 12 13 13 14 14 15 16 16 17 17 17 19 20 20 20 21 22 22 23 24 25 25 26 27 27 28 29 29 29 29
10 11 12 13 13 13 13 11 10 10 11 12 12 12 13 13 13 14 14 15 15 15 16 17 17 18 19 20 21 22 22 23 24 25 26 27 27 28 29 30 30 30 30 30
9 10 12 13 14 13 13 12 12 11 11 12 13 13 13 13 13 13 14 14 15 16 16 17 18 18 19 21 22 22 23 24 25 26 27 28 28 29 30 31 30 31 31 31
9 11 12 12 13 14 14 13 13 13 13 12 13 14 13 13 13 14 14 14 14 16 16 17 18 19 20 21 23 23 24 25 26 26 26 27 27 28 29 29 30 30 31 31
9 10 10 11 12 14 14 14 13 13 13 13 13 14 14 14 14 15 15 15 16 17 17 17 18 20 21 22 24 25 26 26 27 26 26 25 26 27 27 27 28 28 29 29
9 9 10 11 12 13 13 14 14 14 14 13 13 15 15 15 14 15 16 16 16 16 17 18 19 20 22 23 24 25 25 26 26 25 25 25 25 25 26 26 27 27 27 27
9 9 10 12 12 13 13 13 13 13 14 14 14 16 16 15 15 15 16 16 16 16 17 18 19 20 21 23 24 24 25 26 25 24 25 24 24 25 26 26 27 27 26 26
10 10 10 11 12 12 13 13 14 14 15 15 14 16 16 16 15 16 16 15 16 16 17 18 19 21 22 23 24 24 24 24 24 24 24 24 24 25 25 26 26 26 25 25
11 11 11 12 12 12 13 13 13 14 15 15 15 16 16 16 15 16 16 15 16 17 18 19 20 21 23 23 23 23 23 23 23 23 23 23 23 24 24 24 24 24 24 24
12 12 12 12 11 11 12 12 13 14 15 16 16 16 15 15 15 16 16 16 17 18 19 20 20 21 21 21 21 21 21 21 22 22 22 22 22 22 22 22 22 22 22 23
11 12 12 11 11 11 11 11 12 12 13 13 15 15 14 14 15 15 15 16 17 17 18 19 19 19 20 20 20 21 20 20 20 21 21 20 21 20 20 20 20 20 20 21
9 9 10 10 10 10 10 10 10 10 10 11 12 13 14 14 15 15 15 16 17 16 17 17 17 18 18 19 19 19 18 18 18 18 18 18 18 17 17 17 17 17 17 17
8 8 8 9 9 10 10 10 9 10 10 10 10 11 12 13 13 14 15 15 14 14 15 15 16 16 16 17 17 16 15 15 15 16 16 16 16 16 16 16 16 16 16 15
6 7 7 7 8 9 10 9 9 9 10 10 10 10 11 12 12 13 13 13 13 13 13 14 15 15 15 15 15 14 13 14 14 14 15 14 14 14 14 15 14 13 13 13
5 5 6 6 7 8 8 7 7 8 8 8 9 10 11 11 11 11 11 12 11 12 12 13 14 13 13 13 13 13 12 13 13 14 14 14 13 13 13 13 13 12 11 11
4 5 6 6 7 7 7 7 7 8 7 7 8 9 10 10 10 10 10 10 11 11 12 12 12 12 12 12 12 11 11 11 12 13 13 12 11 11 11 12 11 10 9 8
4 5 5 5 6 6 6 6 6 6 7 7 8 8 9 9 9 9 9 9 10 10 11 11 11 10 11 11 10 10 10 11 11 11 11 11 10 10 11 10 10 9 8 7
4 4 4 4 5 5 5 6 6 6 6 7 7 7 8 8 8 7 7 8 8 9 9 9 9 9 10 10 10 10 10 11 11 11 10 10 9 9 10 9 9 8 8 7
3 4 4 4 5 5 5 5 5 6 6 6 6 6 7 7 6 5 6 6 7 8 8 8 8 8 9 9 9 10 10 10 9 10 10 9 9 9 9 9 8 8 8 7
3 3 3 4 5 5 4 5 6 6 6 6 6 6 7 6 5 5 5 7 7 7 7 7 7 8 9 9 9 8 8 8 9 9 9 9 9 9 9 8 9 9 9 8
3 3 3 3 4 4 4 4 5 5 5 5 6 6 6 6 5 4 5 6 6 6 6 6 7 7 8 8 8 8 8 9 8 8 8 8 8 8 9 9 9 9 10 10

GEFSCGP_500_meanwind_156.txt.gz
Wind_Speed
10 12 12 12 12 13 14 15 15 14 16 15 16 18 18 18 20 19 19 19 19 19 19 19 19 19 19 19 19 20 21 21 23 23 25 26 26 27 28 28 28 28 27 28
9 9 10 12 14 16 15 16 16 15 17 16 15 18 18 19 19 19 19 20 21 20 19 18 18 18 19 21 21 21 22 22 23 24 24 25 26 26 25 26 27 28 28 28
7 8 11 12 14 16 16 14 13 16 16 15 15 16 17 19 19 19 19 21 19 18 19 19 19 19 20 21 22 22 23 23 24 24 25 25 25 25 25 25 25 27 29 29
8 12 12 12 12 13 13 14 15 16 16 14 14 17 18 19 21 20 20 19 19 18 19 20 20 21 21 20 21 22 23 24 25 26 25 25 25 25 25 26 27 28 29 29
8 10 11 11 11 11 13 15 15 15 14 15 16 17 18 21 22 20 20 20 18 18 20 21 22 22 21 21 22 23 24 24 24 24 25 25 25 26 27 28 29 29 29 30
9 9 9 10 11 12 13 14 13 14 15 18 18 19 20 21 20 19 19 19 18 19 20 21 22 23 23 23 23 23 23 23 23 24 25 26 26 27 28 28 29 29 30 30
7 9 9 9 10 12 13 13 13 15 18 18 17 19 20 20 20 20 20 18 18 20 20 21 21 22 23 23 22 23 23 23 24 24 25 25 26 27 28 29 30 30 30 31
8 8 9 9 9 11 12 13 15 16 15 15 16 18 19 17 17 19 19 19 20 22 22 22 22 22 23 22 22 23 24 24 25 25 26 26 28 29 29 30 31 31 31 31
7 7 9 11 11 12 12 13 14 15 15 16 16 16 16 18 18 18 18 19 22 23 23 22 22 23 22 23 23 24 25 25 25 25 26 27 28 29 30 30 31 31 30 30
10 10 10 11 12 12 13 13 14 16 15 15 16 17 18 16 18 18 19 21 21 22 22 23 23 23 23 23 23 24 24 25 25 26 26 26 27 28 28 28 29 29 28 28
11 11 11 12 12 13 14 14 15 16 16 16 17 19 18 18 20 20 18 19 21 22 23 24 24 24 23 24 24 25 25 25 26 26 26 27 28 28 28 28 28 28 28 27
12 12 12 11 12 13 14 14 15 17 18 18 19 22 22 22 21 21 21 20 20 21 22 23 24 24 24 25 25 25 25 26 26 26 26 26 27 27 26 26 26 26 26 25
11 12 12 11 12 12 13 14 16 17 18 19 20 23 24 24 22 19 20 20 20 21 22 23 23 24 24 24 25 25 25 26 26 26 26 26 26 26 26 25 25 25 24 23
13 12 13 12 11 12 13 14 15 17 18 19 22 21 22 22 20 18 18 19 20 21 22 22 23 23 23 24 24 24 25 25 26 25 25 25 26 26 24 23 23 22 22 22
12 11 12 12 11 12 13 14 14 16 16 18 19 20 19 20 19 19 19 19 19 20 21 21 21 22 22 22 22 23 24 24 24 24 24 24 24 24 23 22 22 22 22 21
12 11 11 11 11 12 14 14 16 17 17 17 18 18 18 19 18 19 20 20 19 19 19 19 20 20 20 20 21 21 21 21 21 22 22 21 22 21 21 21 21 20 20 19
11 10 10 10 10 11 13 14 15 16 17 16 16 17 18 17 18 18 18 19 19 18 18 18 18 19 19 19 19 19 19 19 19 19 19 19 19 20 20 20 19 18 17 16
11 9 9 10 10 12 13 13 14 14 15 15 15 15 16 17 17 16 16 18 18 17 17 18 18 18 18 17 17 17 17 17 18 18 18 18 18 18 18 18 17 16 15 15
9 9 10 11 11 13 12 13 13 13 13 13 13 14 14 15 15 14 15 16 16 16 16 17 17 16 15 14 15 15 16 16 17 17 17 17 17 16 16 16 14 13 14 14
9 9 9 11 11 13 12 12 12 13 13 13 11 12 14 13 14 14 14 14 13 14 15 14 14 13 13 14 14 15 15 16 16 16 16 16 15 15 14 13 13 13 13 13
9 10 10 10 11 12 12 11 12 13 13 13 12 12 13 12 12 12 13 13 13 13 13 12 11 12 12 13 13 14 14 15 15 15 15 14 13 12 12 12 12 12 12 12
9 10 9 9 11 12 12 11 11 11 12 12 12 12 12 11 11 11 11 11 11 11 11 10 10 11 11 12 12 13 13 13 13 13 13 12 11 11 11 12 11 12 11 10
9 10 9 8 9 9 10 10 10 10 11 11 11 10 10 10 9 9 9 10 10 10 10 9 10 10 10 11 12 12 13 12 11 11 12 12 11 11 10 10 10 10 10 10
9 9 9 9 8 8 8 8 8 9 8 8 9 8 8 8 8 8 8 9 10 9 9 9 9 9 10 11 11 12 12 10 10 11 11 11 11 10 10 10 9 10 10 9
9 8 8 8 7 7 7 7 7 6 6 6 7 7 7 7 7 7 7 8 9 8 8 8 9 9 9 10 10 11 11 10 10 10 10 10 10 11 10 9 9 9 9 9
8 8 8 8 7 6 7 6 6 6 6 6 6 6 6 6 6 6 7 7 7 7 7 7 8 8 9 9 9 10 10 10 9 9 9 8 9 9 9 9 9 9 9 9

GEFSCGP_500_meanwind_162.txt.gz
Wind_Speed
15 16 17 17 18 18 19 20 18 17 16 16 15 16 15 15 16 15 15 15 14 14 16 17 18 18 18 18 19 19 20 21 22 22 22 22 22 22 23 24 25 25 25 25
13 14 15 17 18 18 18 17 17 16 15 16 16 17 17 16 15 16 16 16 17 16 16 18 18 18 17 17 18 19 20 21 22 21 22 23 23 24 24 24 25 25 25 25
12 12 15 16 16 16 16 16 14 14 13 15 17 18 18 17 17 17 17 17 17 17 18 19 20 19 18 17 19 19 20 21 21 21 22 24 24 25 26 26 26 26 25 25
9 10 12 13 14 15 14 13 14 13 14 16 18 19 19 18 18 18 17 17 17 17 19 19 18 18 17 18 19 19 20 20 21 21 22 24 24 25 26 26 26 26 26 26
8 9 10 11 11 12 12 12 13 14 15 16 18 20 20 19 18 18 18 18 19 19 19 19 19 18 18 19 19 19 19 20 21 22 23 24 25 25 25 26 26 26 26 26
7 8 9 10 10 11 11 12 13 14 16 18 18 20 20 19 20 20 19 20 20 19 20 20 19 18 19 19 19 20 20 21 22 23 23 24 24 25 26 26 26 26 26 27
8 8 8 10 11 12 13 13 14 15 17 17 17 19 18 18 18 18 19 20 20 20 21 20 19 19 18 19 20 20 22 22 22 23 23 23 24 24 25 26 26 26 26 27
7 7 7 10 11 12 13 14 14 15 16 16 18 19 18 17 18 18 19 20 20 20 19 18 18 18 19 20 21 22 21 21 22 23 23 24 25 25 25 25 26 26 26 27
7 8 8 10 11 11 11 13 14 16 16 16 16 17 16 15 16 17 19 19 18 18 17 17 19 20 20 21 22 21 20 21 22 23 23 24 24 24 25 25 25 25 25 26
8 9 10 11 12 12 13 13 14 17 17 18 17 17 17 16 15 16 15 15 16 16 17 18 19 20 20 21 20 21 22 21 22 22 23 23 24 25 25 25 25 25 25 26
9 10 10 11 13 14 15 16 17 17 19 19 19 17 17 17 17 17 17 17 17 16 17 17 18 19 20 20 20 21 20 20 21 22 23 23 24 25 24 24 25 25 25 25
10 12 12 12 13 15 16 18 18 18 19 19 19 17 17 18 19 18 17 17 15 15 16 17 19 20 20 20 20 19 19 20 20 21 22 23 24 24 24 24 24 24 24 23
12 13 14 13 14 15 16 16 17 17 18 18 19 18 17 18 18 18 16 16 16 16 16 17 19 19 19 20 20 19 20 20 21 21 22 23 23 23 23 23 23 22 22 21
12 12 13 14 14 14 15 16 16 17 17 18 18 18 17 17 17 17 16 17 17 16 16 17 18 19 19 19 19 19 19 20 20 21 21 21 21 21 21 21 21 21 20 20
11 12 12 14 14 14 14 15 16 17 16 16 15 15 15 14 15 16 17 17 16 16 17 18 19 19 18 18 18 18 18 19 19 20 20 19 19 19 19 19 19 18 18 18
12 12 13 13 14 14 14 13 14 14 14 14 15 14 14 15 16 16 15 15 15 15 16 16 17 18 17 16 16 16 18 17 17 18 18 18 17 17 17 17 17 17 17 16
13 13 13 13 13 14 14 13 13 13 13 14 15 15 15 15 16 15 14 14 13 13 14 15 15 15 15 15 15 16 16 15 15 16 16 16 15 15 16 16 16 16 16 15
13 13 13 13 14 14 13 13 12 12 11 13 13 13 14 14 14 14 13 13 13 13 13 13 13 13 13 13 14 14 14 13 14 14 14 14 14 14 14 15 15 14 14 14
12 12 12 13 13 13 12 12 12 12 11 11 12 13 14 14 14 13 12 12 12 12 12 12 11 12 12 12 11 11 11 11 12 13 13 13 13 14 14 14 14 14 14 13
11 11 11 12 12 12 11 11 12 12 10 11 11 12 12 12 12 12 11 11 11 11 11 11 10 9 8 8 10 11 11 11 12 12 13 13 13 13 13 13 13 13 13 13
10 10 11 11 11 11 10 9 10 11 11 11 11 10 10 10 9 9 9 9 9 10 10 10 9 8 9 9 10 11 11 11 11 12 12 13 12 12 12 12 12 12 12 12
10 10 10 11 11 10 9 9 9 9 9 9 9 8 8 7 8 7 7 8 8 8 8 7 7 7 8 9 9 10 10 11 11 11 11 12 11 11 11 11 11 11 12 12
10 10 10 10 9 9 8 8 7 8 8 8 8 7 7 7 7 6 6 7 7 6 6 5 6 6 7 7 8 9 10 10 11 11 11 11 11 10 10 10 10 11 12 12
9 9 9 9 8 8 8 8 7 6 7 6 6 5 5 4 4 4 5 6 6 6 5 4 5 5 6 7 8 9 9 10 10 11 11 11 10 10 9 9 9 10 11 11
8 8 7 7 7 6 6 7 6 6 5 4 4 4 4 3 3 4 5 6 6 5 4 4 4 5 6 6 7 8 8 9 10 10 10 11 10 10 10 9 9 9 10 10
7 7 7 5 5 5 5 4 5 4 3 2 2 2 2 3 4 5 5 5 5 5 5 4 5 5 6 6 7 7 8 9 9 9 10 10 10 10 10 10 9 9 9 10

GEFSCGP_500_meanwind_168.txt.gz
Wind_Speed
15 15 17 18 20 21 22 22 22 22 23 23 23 21 20 19 17 17 16 16 16 17 16 17 17 18 19 20 20 20 20 21 22 22 23 23 23 23 24 25 25 25 25 25
14 15 16 17 18 20 20 21 21 22 23 24 23 22 21 20 18 16 16 16 17 17 17 17 19 20 21 21 21 21 21 22 23 23 23 23 22 23 24 25 25 26 25 26
13 14 14 15 17 19 19 19 20 21 21 22 23 22 21 19 17 17 17 17 17 17 18 18 19 20 21 22 22 23 23 23 23 22 23 23 23 24 25 26 26 26 26 27
13 13 14 14 15 16 18 18 18 19 20 20 21 20 18 18 17 17 17 18 17 17 18 19 19 20 21 22 22 22 23 24 24 24 24 24 24 24 25 25 26 27 28 28
13 13 13 14 14 15 16 18 18 17 19 19 19 21 19 19 18 18 18 18 18 19 19 19 19 20 21 21 22 22 23 23 22 22 23 24 24 25 25 26 26 27 28 28
12 12 12 13 13 14 15 16 18 18 19 19 18 19 19 18 18 18 18 18 18 19 19 20 19 20 20 21 21 21 22 22 22 22 23 24 24 25 25 25 26 27 28 28
10 10 11 12 13 13 14 15 17 18 18 19 19 19 18 17 18 18 18 18 18 19 20 19 19 20 21 22 21 21 21 21 22 22 23 24 24 24 25 25 26 27 28 29
9 9 10 11 13 13 13 14 16 16 16 17 18 18 17 17 18 18 18 18 19 19 19 19 20 21 22 22 22 21 21 22 22 23 24 24 24 23 24 25 26 26 27 28
9 9 10 11 12 14 15 16 17 17 18 18 17 17 16 17 18 18 18 18 18 18 18 18 20 21 22 22 22 22 20 20 21 23 23 23 23 23 24 24 25 26 26 26
10 11 11 12 13 15 16 16 17 18 19 18 17 16 16 16 18 19 18 18 18 18 18 19 21 20 20 21 20 20 19 19 20 21 22 23 23 23 24 25 25 25 24 24
11 12 12 14 15 16 17 17 18 19 19 19 18 16 17 16 16 17 18 17 17 18 19 20 20 19 19 20 20 18 18 19 19 20 22 22 23 23 23 23 23 22 22 23
12 13 13 15 16 17 18 18 18 19 19 19 19 18 17 17 16 17 17 17 17 17 18 19 19 18 18 19 18 18 18 19 19 20 22 22 22 22 22 22 22 22 22 22
13 14 14 14 15 17 18 18 18 19 19 19 19 18 17 17 17 17 16 16 16 17 18 18 17 17 17 17 17 18 18 18 19 20 20 21 21 21 21 21 22 22 22 21
14 15 15 15 15 16 17 17 18 18 18 19 18 18 17 16 16 16 15 16 16 17 17 16 15 15 15 16 16 17 18 18 19 19 19 20 20 20 20 20 21 21 20 20
14 14 15 15 16 16 16 17 17 17 18 18 17 17 16 16 16 15 15 16 16 16 16 15 14 14 14 15 16 16 17 17 17 17 17 18 19 19 19 18 19 19 19 19
14 15 15 15 15 16 17 16 16 17 18 18 17 16 15 15 15 15 15 15 15 15 14 14 14 14 14 14 15 15 15 15 15 15 16 17 17 17 17 17 18 18 18 18
15 14 15 15 15 16 16 16 16 16 16 17 17 17 16 15 15 15 15 14 14 14 14 13 13 13 13 13 13 13 13 13 13 14 15 16 16 16 16 16 17 17 17 17
16 15 16 16 15 15 14 14 14 14 15 16 16 15 15 14 14 14 14 13 12 11 11 11 11 11 12 11 11 11 12 13 13 14 15 15 16 15 15 15 16 16 15 15
15 15 16 16 15 14 13 13 13 13 14 14 15 14 14 14 13 13 13 12 11 11 10 9 10 11 11 10 10 10 11 12 12 13 14 14 15 15 15 15 15 14 14 15
14 14 15 15 15 14 12 12 13 13 13 13 13 14 13 12 12 11 11 11 10 9 8 8 9 9 10 10 10 10 10 11 12 12 13 13 13 13 13 13 13 13 14 14
13 13 13 13 13 13 12 12 12 12 12 11 12 12 11 11 10 10 10 10 9 8 7 7 8 9 9 9 9 9 10 11 11 12 12 12 13 13 13 12 12 13 13 14
12 12 12 13 12 12 12 12 11 11 11 10 10 10 10 10 9 9 8 8 7 6 6 6 7 7 8 8 8 9 10 11 11 11 11 12 12 12 12 12 12 13 13 14
12 12 12 13 12 12 11 11 10 10 9 9 8 8 8 8 7 6 5 5 5 5 5 5 6 7 7 8 8 9 10 11 11 11 11 11 12 12 11 11 12 13 13 13
12 12 12 11 11 11 10 9 9 8 7 7 6 6 6 6 5 5 5 4 4 5 5 5 5 5 6 7 7 8 9 10 10 10 10 11 11 11 11 12 12 13 13 13
12 11 11 10 10 10 9 8 8 7 7 5 4 4 4 4 4 4 3 3 3 4 4 4 4 5 6 6 7 7 8 9 9 9 9 10 10 11 12 12 12 12 13 13
11 10 10 9 9 9 8 8 7 7 5 4 4 4 3 3 3 3 2 2 3 3 3 4 5 5 5 6 6 7 7 8 8 8 9 10 11 11 11 12 13 13 12 13

GEFSCGP_500_meanwind_174.txt.gz
Wind_Speed
10 10 11 12 13 15 15 16 16 18 18 18 18 19 19 18 18 19 18 18 18 18 19 19 20 21 21 22 21 21 21 21 22 23 23 24 25 25 26 26 27 27 28 28
9 10 11 12 12 13 14 15 16 17 18 18 18 18 19 18 18 19 19 18 18 19 19 19 20 21 21 21 22 22 22 23 22 23 24 25 25 26 27 27 27 27 28 28
10 11 11 11 12 13 14 14 15 17 18 18 18 18 18 19 19 19 19 19 18 19 20 21 20 20 20 21 22 21 21 21 22 22 24 24 24 26 27 26 26 27 27 28
10 11 12 13 13 13 14 15 16 17 16 17 17 18 18 19 19 18 18 18 18 19 20 20 19 20 21 22 21 21 21 22 22 23 24 24 25 25 26 26 26 27 27 27
10 11 12 14 14 14 15 15 16 17 17 18 18 17 16 17 18 18 18 18 18 18 20 19 19 20 21 22 22 22 23 23 23 23 24 24 24 24 25 26 26 27 28 28
11 12 13 14 15 15 15 15 16 17 17 17 17 17 15 16 17 17 18 19 19 19 20 20 21 21 22 22 23 23 23 24 24 23 24 23 23 24 25 26 27 27 27 28
11 12 13 14 14 15 14 13 13 13 14 15 15 17 16 17 16 16 17 19 19 20 20 21 21 21 22 23 23 23 23 23 22 22 23 23 23 24 25 25 26 26 27 28
12 13 13 13 13 14 14 13 13 14 14 13 16 16 16 17 17 17 17 18 19 19 20 21 21 21 22 22 22 23 22 22 22 23 23 23 24 24 24 25 25 26 27 28
10 11 12 13 13 14 13 13 14 15 15 15 15 16 17 16 17 17 17 17 18 18 19 20 20 21 21 21 21 22 22 22 22 23 23 23 23 23 24 25 26 26 26 26
10 12 12 12 12 13 14 14 14 13 14 15 16 16 16 16 16 16 16 17 17 18 19 19 19 20 20 21 21 21 21 21 22 23 22 21 21 22 23 23 22 23 23 22
11 11 11 12 12 13 15 15 15 14 15 14 15 16 17 17 17 17 17 18 18 18 18 19 19 20 20 21 21 21 20 19 20 21 21 21 21 21 21 21 21 21 20 21
11 11 11 12 12 13 14 14 15 15 16 16 16 17 18 17 18 18 17 17 18 17 18 18 18 19 19 20 20 20 19 18 19 19 20 20 19 20 20 20 19 19 20 20
12 12 11 12 12 12 13 14 15 16 16 16 16 18 19 18 18 17 17 17 17 17 17 17 17 18 18 18 18 17 17 18 19 19 19 18 18 19 19 18 19 19 19 20
12 12 12 13 13 13 14 14 15 15 16 17 17 18 19 19 18 17 17 17 16 16 17 17 17 16 16 16 16 16 16 17 17 17 17 17 18 18 18 18 19 19 19 19
13 14 14 14 14 14 14 14 14 15 16 17 18 19 19 19 19 18 17 17 17 17 16 16 15 15 15 15 15 15 15 15 15 15 16 16 17 17 17 18 18 18 18 18
14 14 15 15 15 14 15 14 14 15 16 17 17 17 18 18 18 17 17 17 16 15 14 14 14 14 13 13 13 14 14 13 13 14 15 16 16 16 16 16 17 17 17 17
14 15 15 15 15 15 14 13 14 14 14 15 16 16 16 16 15 15 15 16 15 14 13 13 13 12 12 12 12 13 13 12 13 13 14 14 14 15 15 16 16 17 17 17
15 14 15 15 15 15 14 14 14 14 13 14 14 14 14 14 14 13 14 14 13 12 12 12 11 11 12 12 11 11 11 12 12 13 13 13 13 14 15 15 15 16 16 16
16 15 15 15 16 15 14 14 13 13 13 13 13 13 13 13 12 12 12 12 11 11 10 10 10 10 10 10 10 10 11 11 12 11 12 12 12 13 14 14 14 14 15 15
16 16 16 16 16 15 14 13 13 13 13 12 12 11 11 11 10 10 10 9 9 9 8 7 7 7 7 8 9 10 10 11 11 11 11 11 11 12 12 13 13 13 14 14
15 16 16 16 16 15 14 14 13 12 12 12 11 10 9 8 8 8 8 7 7 7 6 5 6 6 6 8 9 9 9 9 10 10 10 10 11 11 12 13 13 13 13 14
16 16 16 15 15 15 14 14 13 13 13 12 10 9 8 8 7 6 6 6 6 5 5 5 5 5 6 7 7 8 8 9 9 9 9 9 10 11 11 12 12 13 13 14
16 15 15 14 13 13 14 14 13 12 11 10 9 8 8 8 7 6 6 6 5 5 5 5 5 5 5 5 6 7 7 8 8 8 8 9 9 10 11 12 12 13 13 14
16 15 14 13 12 12 12 12 12 10 9 9 9 9 8 6 6 5 5 5 4 4 4 4 4 4 4 4 4 5 6 7 7 7 8 8 9 10 11 11 12 12 13 13
16 14 14 13 12 11 10 11 10 8 8 7 7 7 6 6 5 5 4 4 4 4 4 3 3 2 3 4 4 5 6 7 7 7 7 8 8 9 10 11 12 12 13 13
15 14 13 13 11 11 10 9 8 7 7 6 6 6 6 6 5 5 4 3 4 4 3 2 2 2 3 3 4 5 5 6 6 7 8 8 9 9 9 10 11 13 13 14

GEFSCGP_500_meanwind_180.txt.gz
Wind_Speed
5 6 7 8 10 12 13 15 17 18 17 19 20 20 20 20 19 21 21 22 22 22 22 22 21 21 22 23 23 23 23 24 24 24 25 25 26 26 26 26 26 26 26 27
5 7 8 10 12 13 14 15 16 16 17 18 20 20 20 20 19 21 22 22 22 23 22 21 21 21 21 22 23 23 23 24 24 25 25 26 26 26 26 26 27 27 27 28
5 8 10 11 14 15 14 14 15 17 17 18 20 21 20 20 21 22 21 22 22 22 22 22 22 22 21 22 22 23 23 24 24 25 25 26 27 27 27 27 28 28 28 28
8 10 12 13 13 14 14 15 16 17 17 17 18 21 19 20 22 21 21 21 20 19 21 22 23 22 22 22 23 24 24 24 24 25 26 27 27 28 28 29 29 28 27 27
8 11 12 12 13 14 15 13 15 17 16 17 18 21 19 19 21 21 21 21 20 20 20 22 22 22 23 23 24 24 24 24 25 26 27 27 28 28 28 28 28 27 27 27
10 12 13 13 15 15 15 14 14 15 15 18 18 20 19 19 21 21 20 20 21 21 22 23 23 23 23 24 24 24 24 25 26 26 27 28 28 28 27 26 26 27 27 26
11 12 13 14 15 14 15 14 14 15 16 19 18 19 20 19 20 22 21 21 22 23 23 23 24 23 23 23 24 24 24 25 25 26 26 25 25 26 26 26 27 27 26 26
12 14 14 14 15 14 14 14 16 18 17 18 19 19 19 19 20 21 22 22 22 22 23 23 23 23 23 24 24 24 25 25 25 25 25 25 25 25 25 26 26 26 26 26
13 14 14 14 14 14 13 15 16 19 18 18 17 18 18 20 21 21 21 21 21 21 22 22 22 22 22 23 24 24 24 24 24 24 24 26 25 25 25 26 25 25 24 25
14 16 15 15 15 14 13 15 15 16 17 18 16 16 18 18 20 20 21 20 21 22 22 22 22 21 21 22 23 23 22 22 22 23 24 25 25 25 24 25 25 24 24 24
15 15 14 15 14 12 13 15 15 16 17 18 17 18 19 20 20 19 20 21 22 22 23 22 22 21 20 20 21 21 21 22 22 23 23 23 23 23 23 23 24 24 24 24
16 15 14 14 13 13 14 15 15 17 17 17 18 19 20 21 21 21 22 21 21 22 22 21 21 20 19 19 20 20 21 21 22 22 22 22 21 21 22 22 23 23 23 23
17 16 14 13 13 13 14 14 14 16 17 17 19 19 20 21 22 22 22 22 22 22 21 20 21 20 19 18 18 19 19 20 21 22 22 21 21 21 21 20 20 20 20 19
18 17 16 14 13 14 15 14 14 16 18 19 20 20 20 20 21 22 22 21 21 20 20 20 21 20 18 16 17 18 18 20 20 20 20 20 20 20 19 18 19 19 19 19
18 18 17 15 14 15 15 15 16 17 17 19 21 23 23 21 22 21 20 20 19 19 19 19 19 19 17 17 16 18 18 19 19 19 19 18 18 18 18 17 18 18 17 17
19 18 17 16 15 15 14 14 16 17 17 19 21 22 21 20 22 21 20 20 19 19 19 18 18 17 17 17 16 17 18 18 18 18 17 17 17 17 16 16 16 17 16 17
19 19 18 16 14 15 14 14 16 17 17 19 20 20 19 19 19 19 18 17 17 18 18 18 16 16 16 16 16 16 16 16 17 17 16 16 15 15 15 15 16 16 17 17
18 17 18 17 15 16 15 16 17 17 17 18 19 20 19 18 18 17 17 17 17 17 16 15 15 15 15 15 14 15 15 15 16 16 15 14 14 15 15 15 16 17 17 18
20 19 18 18 16 16 16 17 16 17 16 17 18 17 17 17 17 16 16 16 16 16 16 15 14 13 13 13 13 14 15 15 14 14 14 14 14 15 15 15 16 17 17 17
20 20 20 19 19 19 17 17 16 16 16 16 16 17 17 16 16 15 15 16 15 14 13 13 12 12 11 12 12 13 13 13 12 12 13 13 14 14 14 15 16 17 17 17
20 20 20 20 19 19 17 16 16 16 15 15 16 16 16 16 16 15 14 14 14 13 12 11 10 10 11 10 10 11 11 11 10 11 12 13 14 14 14 15 16 16 17 17
20 20 20 19 19 19 19 18 17 16 16 16 16 16 16 15 15 14 13 12 12 11 11 10 9 9 9 9 9 10 10 10 10 10 11 12 13 13 14 15 16 16 17 17
21 21 22 20 19 19 19 19 16 16 16 16 16 15 15 15 13 12 11 11 11 10 10 8 7 7 8 8 8 9 9 9 9 10 10 12 12 12 13 14 15 16 16 17
21 21 21 20 20 20 19 17 17 16 16 16 16 15 14 13 12 11 10 10 9 9 8 7 7 6 7 7 8 8 8 8 9 9 10 11 11 12 13 14 15 15 15 16
21 20 20 19 20 19 17 16 16 16 16 16 15 13 12 11 10 10 9 8 8 7 7 7 6 5 6 6 7 8 7 7 8 9 9 10 11 12 13 14 15 15 16 17
21 20 19 17 18 18 16 15 15 15 14 13 12 11 10 9 9 8 7 7 6 6 6 5 5 5 5 6 7 6 6 6 7 8 9 11 11 12 13 14 14 15 16 16

GEFSCGP_500_meanwind_186.txt.gz
Wind_Speed
7 7 7 8 10 11 12 13 15 15 16 18 18 18 17 17 17 16 15 15 16 16 17 17 18 19 19 20 21 22 22 21 20 21 21 21 21 21 22 23 24 25 26 26
6 6 7 8 9 10 11 13 13 13 15 17 17 18 17 16 17 17 17 17 18 17 17 18 19 20 21 22 22 22 20 20 21 21 20 20 21 22 24 24 25 25 26 27
6 6 7 8 10 10 11 12 12 14 15 16 18 18 17 17 17 17 18 19 19 18 18 18 19 20 21 20 20 20 20 21 20 20 20 21 22 23 24 24 25 25 27 27
6 6 7 9 10 11 11 12 14 15 15 16 17 17 17 18 18 17 19 19 18 19 19 19 19 19 20 19 19 19 20 19 20 20 21 22 23 24 24 24 25 25 25 25
6 7 8 9 9 11 12 13 15 16 16 16 17 17 16 17 19 19 19 20 19 19 19 18 19 20 19 18 19 20 19 19 20 21 21 22 23 24 24 24 25 25 25 25
7 8 10 10 10 12 14 15 15 14 15 16 16 17 15 16 17 19 19 19 19 18 18 20 19 18 18 18 18 18 19 19 19 20 21 22 23 23 23 24 25 26 26 26
8 9 10 11 12 12 13 14 15 14 15 15 16 18 17 17 17 17 17 18 18 18 18 19 19 17 18 18 18 17 17 18 19 19 20 21 21 22 23 24 25 25 26 25
10 9 10 12 13 14 14 15 16 16 15 15 17 18 17 18 17 17 16 17 17 19 19 19 19 18 18 18 18 18 18 18 19 19 20 21 22 23 23 24 24 24 25 24
15 13 12 13 14 15 15 17 18 18 17 17 17 17 18 19 18 18 19 18 18 17 17 17 17 17 17 17 18 19 19 20 20 20 20 21 22 23 23 23 24 24 24 24
17 16 14 15 16 16 18 18 19 20 20 19 18 18 18 18 18 18 18 17 16 16 16 16 16 17 18 18 18 19 20 20 21 21 21 21 22 23 23 23 23 24 23 23
17 18 16 15 16 17 18 18 19 20 20 19 18 16 16 17 16 15 15 15 14 14 14 14 15 16 17 17 17 18 20 20 20 20 21 21 21 22 22 22 22 22 21 20
17 18 18 17 17 18 19 18 18 19 19 18 17 16 15 15 14 15 15 15 14 14 15 14 14 15 16 17 18 18 19 20 20 20 21 21 20 21 21 21 21 20 19 19
19 20 19 18 18 18 18 17 17 18 19 19 18 17 16 15 15 16 17 17 16 16 16 14 15 16 16 17 17 18 19 19 20 20 21 21 21 20 20 20 19 19 19 18
20 20 20 19 18 18 17 17 18 19 18 18 18 18 17 16 16 16 16 16 16 16 16 16 16 15 15 16 17 17 18 18 19 19 19 19 19 19 19 18 18 18 18 18
21 20 20 20 18 18 17 16 17 18 18 19 18 18 17 16 15 16 16 15 14 14 15 15 15 14 15 15 16 16 17 18 17 18 18 18 17 17 17 17 17 17 17 17
22 20 20 19 17 18 17 15 16 17 18 18 18 17 17 16 15 15 16 16 15 14 14 14 14 13 14 15 15 15 16 16 16 16 16 15 15 15 15 15 16 17 17 17
22 20 19 19 18 17 15 14 15 16 17 18 18 16 16 15 14 14 15 14 14 13 13 12 13 13 13 14 15 14 14 15 14 14 14 14 14 15 15 16 16 17 17 17
23 21 20 20 20 18 15 15 15 16 16 16 15 15 13 13 13 13 14 13 13 13 12 12 12 12 13 13 13 13 13 13 13 13 13 14 15 15 15 15 15 16 16 17
21 20 20 20 20 18 16 15 15 15 16 15 15 14 13 12 12 11 13 13 13 12 12 12 12 12 12 12 11 11 12 12 13 12 13 13 14 14 14 14 15 16 15 15
19 19 20 20 19 18 15 15 15 15 15 14 14 13 13 13 12 11 13 13 12 12 11 11 11 12 12 11 11 10 11 11 11 11 12 12 12 13 13 14 15 15 15 15
19 20 21 20 19 17 15 15 16 15 15 14 14 14 13 13 12 11 11 11 12 11 11 10 10 10 10 10 10 9 9 9 9 10 10 10 10 11 12 13 13 14 14 15
19 20 20 20 18 15 14 15 15 14 15 14 14 13 13 13 12 12 11 11 11 11 10 10 9 9 9 8 8 8 7 7 7 8 9 10 10 11 12 12 13 14 14 15
19 18 19 17 16 15 15 14 14 14 14 14 13 12 12 12 12 12 11 10 10 9 8 8 7 7 7 6 5 6 6 7 7 8 9 9 10 11 11 13 14 15 15 15
19 18 18 17 16 15 14 14 15 14 14 13 12 11 11 11 11 10 9 9 8 7 6 6 6 6 5 4 4 6 6 7 7 8 8 8 9 11 12 13 14 14 15 15
17 18 19 17 15 16 14 14 14 14 13 12 10 10 10 10 9 8 6 6 6 5 5 5 5 5 4 3 3 4 5 6 7 7 7 8 9 11 12 13 14 14 15 15
17 18 19 18 18 17 15 14 13 13 11 10 10 9 9 8 7 6 5 4 4 4 4 4 3 2 2 2 2 3 4 6 7 7 7 8 9 11 12 13 14 15 15 16

GEFSCGP_500_meanwind_192.txt.gz
Wind_Speed
5 7 8 10 12 13 15 16 16 17 19 20 20 20 20 20 20 20 20 20 19 18 18 18 17 17 17 17 18 19 19 19 19 19 20 21 21 21 21 21 21 22 23 24
6 7 9 11 12 13 14 15 16 17 19 20 20 20 20 19 19 19 19 19 18 18 19 19 19 19 18 18 19 19 20 20 20 20 20 22 22 21 21 21 22 23 23 24
7 9 10 12 13 14 14 15 16 17 18 19 20 19 19 18 18 18 18 19 20 20 20 19 19 19 19 19 19 19 20 20 19 19 19 20 21 21 22 22 23 23 23 24
8 10 12 13 14 14 14 15 16 17 18 19 19 19 18 18 17 18 18 18 19 20 19 19 19 20 20 19 19 19 20 20 19 20 20 20 21 22 22 22 23 23 24 25
9 10 12 13 14 15 15 16 17 17 18 18 18 19 17 17 18 18 18 18 18 19 19 20 20 20 20 19 19 20 21 20 20 19 19 20 21 21 21 22 22 23 24 24
11 12 13 14 15 15 16 17 18 18 19 19 18 19 18 17 17 18 19 19 19 18 19 19 19 20 20 19 19 20 21 21 21 21 20 20 20 20 21 22 23 23 24 25
13 14 15 15 15 16 17 19 19 20 20 19 18 19 17 17 18 19 19 19 19 19 18 19 19 20 20 19 20 21 22 21 20 20 20 21 21 21 22 22 23 24 25 25
15 15 15 17 18 18 18 19 20 21 21 20 19 19 18 18 18 18 17 18 18 18 18 19 19 19 19 19 20 21 22 22 22 21 20 21 22 22 23 23 23 24 24 24
19 18 17 19 19 19 19 18 19 20 20 20 20 19 19 19 19 18 18 18 18 18 19 19 18 19 19 19 20 20 21 21 21 22 22 22 22 23 23 23 24 24 23 23
23 23 20 20 20 19 20 20 19 20 20 21 20 18 19 18 18 18 18 17 18 18 19 18 18 18 18 18 20 21 20 20 21 22 22 22 23 23 23 23 22 22 22 22
25 25 23 21 21 21 20 20 20 21 21 21 20 17 18 18 18 18 17 17 17 17 17 17 17 17 17 18 19 19 20 20 20 21 21 22 22 23 22 21 22 22 21 22
25 26 25 23 22 21 20 20 19 20 20 19 20 18 17 17 17 17 16 16 16 16 16 16 16 16 17 18 19 19 19 20 20 20 20 21 21 21 21 21 21 22 22 22
26 26 26 24 23 22 21 20 19 20 20 20 20 19 18 18 18 17 16 17 16 15 15 16 16 17 17 18 19 19 18 19 19 19 19 19 19 19 20 20 21 21 21 21
27 26 25 24 22 22 22 21 20 21 21 21 20 19 17 18 18 18 18 17 16 16 15 16 17 17 17 17 17 17 18 19 19 18 18 18 18 18 19 19 19 19 19 20
28 27 25 25 24 24 23 22 21 21 21 22 21 19 17 17 17 18 18 17 16 16 16 16 17 17 17 17 17 17 17 17 17 17 17 17 17 17 18 18 18 18 19 19
28 27 25 24 24 25 24 22 20 20 20 20 20 18 17 17 17 18 18 17 17 17 16 16 16 17 17 16 16 16 16 16 16 17 17 17 16 16 17 17 18 18 19 18
26 25 25 24 23 24 24 20 20 20 20 19 19 17 16 16 16 17 17 17 17 16 17 16 16 17 16 16 15 15 15 15 15 16 16 15 15 15 16 17 17 18 18 18
24 24 24 24 23 24 20 18 19 19 19 18 17 16 16 15 16 16 17 16 16 16 17 16 15 15 15 14 13 13 13 14 14 14 14 13 14 15 15 16 16 17 18 17
22 22 22 23 23 22 18 17 17 18 18 17 16 16 16 16 16 15 15 15 16 16 16 14 14 13 13 12 12 12 13 13 13 13 12 13 13 13 14 14 15 17 17 17
21 21 21 21 21 20 18 17 18 18 17 16 16 16 15 15 15 15 15 14 14 15 14 14 13 12 12 12 12 12 12 12 12 12 12 12 12 12 13 14 15 16 17 17
20 20 20 20 20 18 17 17 17 17 16 16 15 14 13 14 15 15 15 15 15 14 14 13 12 12 11 11 10 10 10 10 11 12 11 11 12 12 13 14 15 16 16 17
19 19 19 19 19 17 17 16 17 16 16 15 14 14 13 14 14 14 14 14 14 14 13 12 11 11 10 10 9 10 10 10 10 10 11 11 12 12 13 14 15 15 16 16
18 19 18 19 18 16 16 16 16 15 14 14 13 13 13 13 13 13 13 13 13 12 10 10 10 10 9 9 9 9 9 9 9 9 10 11 11 12 12 13 14 15 16 17
18 18 18 18 17 16 16 16 16 15 13 12 12 11 12 12 12 12 11 11 11 11 10 10 9 9 8 8 9 8 9 9 9 9 10 10 10 10 11 12 14 14 15 16
18 18 17 17 16 16 15 16 16 14 12 12 11 11 11 11 12 11 10 10 9 9 9 9 8 7 7 7 7 7 8 8 8 9 9 9 10 11 12 13 14 15 15 16
18 18 16 15 16 17 16 16 15 14 13 12 11 11 11 11 10 10 9 7 7 7 6 6 6 6 6 6 6 6 7 7 8 8 9 9 10 11 12 13 14 15 16 17

GEFSCGP_500_meanwind_198.txt.gz
Wind_Speed
3 4 6 7 8 9 11 11 13 14 16 17 17 18 18 19 19 19 19 18 18 19 19 19 20 20 20 20 20 20 20 21 20 20 21 22 23 23 23 23 24 24 24 25
4 6 8 9 10 11 12 13 14 15 16 17 18 18 18 19 19 19 19 19 20 20 20 20 20 20 20 19 19 20 21 21 21 21 22 23 23 24 24 24 25 25 24 24
5 7 9 9 10 11 13 14 15 16 16 16 17 17 17 18 19 19 19 20 20 20 19 20 20 21 20 20 20 21 21 21 22 23 24 23 23 24 24 24 24 24 24 24
8 9 10 11 11 12 13 15 16 17 17 16 17 16 17 18 19 20 20 20 20 19 20 20 21 21 20 21 21 21 21 22 23 23 23 23 23 23 24 24 24 24 24 23
10 11 12 12 14 15 15 17 17 17 18 18 18 18 17 18 19 20 20 20 19 19 20 21 21 20 20 21 21 21 21 23 24 24 23 23 24 24 24 25 25 24 24 24
12 13 14 15 16 17 18 18 18 18 18 18 19 19 18 19 20 19 19 19 19 20 20 20 20 20 20 21 21 22 22 23 24 25 24 25 24 24 24 24 24 23 24 24
14 15 17 17 17 18 18 17 17 17 17 18 19 19 19 20 19 18 18 19 19 19 20 20 20 20 20 20 21 21 22 22 23 24 24 25 25 24 24 24 22 22 23 23
16 17 18 19 19 20 19 18 18 18 17 18 19 18 18 19 18 18 18 18 19 19 20 20 19 19 20 20 21 21 21 22 23 24 25 24 24 23 23 23 22 21 22 23
18 19 19 20 21 21 21 20 19 20 20 20 19 18 19 20 19 19 18 18 18 19 20 20 19 19 20 20 20 21 22 22 23 24 24 24 23 22 22 22 22 21 21 22
21 22 21 21 21 21 21 21 21 20 20 20 19 18 18 20 19 19 20 19 19 18 18 19 19 19 20 20 20 21 22 22 23 23 23 23 23 22 22 22 22 21 21 22
24 25 24 23 22 21 21 20 21 21 21 20 20 18 19 19 18 18 19 19 19 19 18 18 18 19 19 20 21 21 21 21 21 21 22 22 21 21 21 21 21 21 21 21
27 27 27 26 24 23 22 22 22 22 22 22 23 21 20 18 18 18 18 18 18 18 19 18 18 18 19 19 20 20 20 20 20 20 20 20 19 19 19 20 19 20 20 21
29 29 28 26 24 24 23 22 22 23 23 23 23 21 19 18 18 18 18 18 18 17 17 18 18 18 18 18 18 18 18 18 19 19 19 18 18 18 18 18 18 18 19 20
29 28 27 25 24 23 23 22 22 22 22 22 21 20 18 17 17 17 17 16 16 16 16 16 17 16 16 16 16 16 17 17 18 18 18 18 17 17 17 17 17 17 17 18
27 26 25 25 24 24 23 22 22 21 21 21 19 19 18 17 17 16 15 15 14 14 14 14 14 14 15 15 15 16 16 17 17 17 17 17 16 16 17 17 17 16 16 18
24 23 23 23 22 22 22 21 21 20 19 19 18 18 17 16 16 16 15 14 13 13 13 13 13 14 14 14 15 16 15 16 16 16 16 16 15 15 15 15 15 15 16 17
21 21 21 20 20 20 20 18 18 17 16 17 17 17 16 15 15 15 15 15 14 13 13 13 13 14 14 14 15 15 15 15 15 15 15 15 14 15 14 14 14 15 16 17
20 20 20 19 19 19 18 17 17 16 16 16 16 15 14 15 15 14 14 14 13 13 13 13 13 13 13 13 14 14 14 14 14 14 13 13 14 14 14 14 14 15 16 17
18 18 18 18 17 17 17 16 15 14 14 14 14 14 14 14 13 14 13 13 13 13 13 13 13 13 13 13 14 14 13 13 12 12 13 13 14 14 13 13 14 14 15 16
17 17 17 17 16 16 16 15 14 13 14 14 13 13 14 13 13 13 13 12 12 12 12 12 12 13 13 12 13 12 11 11 11 12 12 13 13 12 12 13 12 13 14 16
17 17 17 17 16 16 14 13 13 14 14 14 13 13 12 13 12 12 11 11 11 10 10 11 11 11 11 10 10 10 10 10 11 11 11 11 11 11 11 12 12 13 15 16
18 17 16 16 16 15 13 13 14 14 14 13 13 13 11 11 10 10 10 10 10 9 9 9 9 9 9 9 9 8 9 9 9 10 10 10 10 11 11 12 12 14 15 16
17 17 17 16 16 14 14 14 14 14 13 13 12 12 10 10 10 9 9 9 9 9 8 8 9 9 8 8 8 8 8 8 9 9 10 10 11 11 11 12 13 14 15 16
17 16 17 16 15 13 13 13 13 13 12 12 12 11 10 10 9 9 9 9 8 8 8 8 9 8 8 8 8 8 8 8 9 10 10 10 11 11 11 12 13 14 15 16
18 17 16 15 14 13 13 13 12 13 12 11 11 11 11 11 10 9 9 9 9 9 8 8 8 8 8 8 8 8 8 9 9 10 11 11 11 11 12 13 14 15 15 15
17 16 16 15 14 13 12 12 11 11 12 11 10 11 11 10 10 9 9 9 9 8 8 8 7 7 7 7 6 7 7 8 9 10 11 11 10 11 12 13 14 15 15 16

GEFSCGP_500_meanwind_204.txt.gz
Wind_Speed
5 5 7 7 8 10 11 13 13 13 15 18 19 20 19 20 18 17 19 21 22 21 21 21 21 21 21 20 20 20 21 22 22 22 21 21 22 23 23 24 25 26 26 26
7 7 8 10 11 12 12 13 13 15 17 19 20 19 20 19 20 20 20 22 22 22 22 23 22 22 22 21 21 21 21 21 21 22 22 23 23 23 24 25 26 26 26 27
8 8 10 12 12 13 14 15 15 16 17 18 19 20 20 20 21 21 21 21 23 22 23 24 24 23 22 21 20 20 20 20 21 21 23 24 24 24 24 25 26 26 26 26
9 11 12 12 13 14 15 16 17 17 17 17 17 20 21 22 21 21 21 22 23 23 23 24 23 22 22 21 20 20 20 20 21 21 23 24 25 25 25 26 26 26 26 27
11 12 13 13 15 16 16 17 18 17 17 18 17 20 21 22 21 21 23 23 24 24 23 23 23 22 21 21 21 21 21 21 21 22 23 24 25 25 26 25 25 25 26 26
12 14 15 15 16 17 17 17 17 16 17 19 19 20 21 22 21 22 24 23 24 24 23 23 22 22 22 21 21 21 21 22 22 23 24 25 25 25 26 26 25 26 26 26
15 15 16 17 18 18 17 17 18 17 16 18 18 19 20 22 23 22 25 25 25 25 24 22 22 22 22 22 21 22 22 23 23 23 24 25 25 25 25 25 26 26 25 25
18 16 15 17 18 18 18 18 19 20 20 20 19 20 20 20 24 23 23 24 23 23 23 23 23 22 22 22 22 22 22 22 23 24 24 23 24 24 25 25 26 26 26 25
19 19 19 19 19 19 20 20 19 22 21 21 20 20 19 22 24 23 22 22 22 23 24 24 24 22 21 21 22 22 22 21 22 22 22 23 24 24 24 24 25 24 24 23
22 22 21 21 22 19 19 20 22 21 21 21 19 19 19 23 25 24 22 22 22 23 24 25 24 21 21 21 21 22 21 21 21 22 22 22 23 23 23 23 22 22 22 23
24 26 24 23 22 20 19 20 20 22 22 21 20 19 20 23 24 24 24 22 21 22 24 24 22 21 20 21 20 21 21 21 21 21 21 21 22 22 22 21 20 21 22 23
26 27 25 24 22 21 20 20 20 22 22 22 23 23 22 22 22 23 24 22 21 21 23 23 21 21 21 20 20 20 19 19 20 21 21 20 21 21 20 19 20 21 21 22
26 26 24 22 21 21 20 20 21 23 23 22 23 23 23 23 22 23 22 21 21 21 22 22 21 21 20 19 19 18 19 19 19 20 20 20 21 20 19 19 20 21 21 21
25 24 23 23 21 20 19 18 19 22 23 23 23 23 24 25 25 24 22 21 21 20 20 20 20 18 17 18 18 18 19 19 19 20 20 19 19 19 19 19 20 20 21 21
24 23 22 22 21 20 20 20 21 22 23 24 25 24 24 24 23 22 21 19 17 17 18 18 18 17 18 18 18 19 18 19 19 19 19 19 19 18 18 19 19 20 20 20
24 23 22 21 21 20 21 20 21 22 23 23 24 24 24 24 22 21 19 17 15 16 16 17 16 16 17 18 18 18 18 18 18 18 18 18 18 17 18 18 18 19 19 20
24 24 22 20 19 20 20 18 19 20 21 23 22 22 22 21 21 21 18 15 14 15 16 17 17 17 16 16 17 16 16 16 16 17 17 17 17 16 16 16 17 18 18 19
23 22 21 20 20 19 18 17 18 18 18 20 21 20 20 19 19 18 18 17 15 14 15 15 16 15 15 15 16 16 15 15 15 15 15 16 15 15 16 15 16 16 18 19
22 21 20 20 19 19 18 17 18 17 16 17 17 16 17 17 16 17 16 15 14 14 14 14 13 13 14 14 14 13 13 13 13 13 14 14 14 14 14 15 15 16 17 18
21 20 20 19 19 19 18 17 19 17 15 16 17 16 15 14 14 14 14 14 14 14 13 12 12 12 12 13 12 12 12 12 12 12 13 14 14 14 14 15 16 17 17 18
22 20 19 18 17 18 18 17 17 16 15 15 16 15 15 14 13 13 13 12 13 13 12 13 12 12 11 12 12 12 12 12 13 12 13 13 14 14 14 15 16 17 18 19
21 20 19 19 18 17 18 17 16 16 16 15 14 14 14 13 13 12 12 11 11 10 10 12 12 12 11 11 11 11 12 12 12 13 13 14 14 14 15 15 16 17 18 20
20 19 19 18 18 18 19 18 17 17 16 15 14 14 13 13 12 12 12 11 10 9 9 10 11 11 11 11 11 11 11 12 12 12 13 14 14 15 15 16 17 18 19 20
20 20 20 19 19 18 18 17 16 16 16 16 15 14 13 13 12 11 11 11 10 9 9 9 10 10 10 9 11 11 11 12 13 12 13 13 14 15 16 17 17 18 19 19
20 19 19 19 18 18 17 16 17 16 15 15 14 13 12 12 11 10 10 10 10 10 10 9 10 10 9 11 11 11 11 12 13 13 13 13 14 15 15 16 17 18 18 19
20 19 18 18 18 18 17 16 16 16 14 13 13 11 10 11 11 10 10 9 9 9 9 8 8 9 9 10 10 10 11 12 12 13 13 14 15 16 17 18 18 18 19 19

GEFSCGP_500_meanwind_210.txt.gz
Wind_Speed
2 4 5 6 7 9 10 10 10 11 14 16 16 15 15 16 17 19 20 21 19 18 18 19 20 20 20 19 19 19 19 18 18 18 18 18 19 20 20 20 20 20 21 20
4 5 6 8 10 12 14 14 13 12 14 17 17 17 17 17 19 21 21 22 21 20 19 19 20 20 20 20 19 20 19 18 18 19 19 19 19 20 21 21 20 21 20 21
7 7 7 10 12 14 14 15 15 16 16 17 18 18 18 19 20 22 23 22 21 21 20 20 20 20 21 20 20 20 20 19 18 18 19 19 20 20 20 21 21 22 22 22
9 9 9 11 14 15 16 16 17 17 18 18 18 20 20 21 22 23 22 21 21 22 22 21 20 20 20 20 20 21 20 20 19 19 18 19 20 20 20 20 21 22 21 21
11 11 13 14 16 17 17 18 18 18 19 19 20 21 21 21 21 21 21 21 22 23 23 23 21 20 20 21 21 21 21 21 19 19 19 20 19 19 19 19 20 21 21 21
12 13 15 17 17 18 18 19 19 19 19 20 20 20 20 21 21 20 20 20 22 22 22 22 20 21 22 21 21 21 21 21 20 19 19 19 19 19 20 20 21 21 21 21
13 15 17 18 19 19 20 21 21 19 19 19 20 20 19 20 20 19 20 21 21 22 22 21 20 21 20 20 21 21 21 21 20 20 20 19 20 20 21 21 22 21 21 21
16 16 17 19 21 22 22 22 22 22 22 20 19 20 19 19 19 19 19 20 20 21 22 22 22 21 20 20 20 21 21 21 21 21 21 21 22 21 21 22 21 21 20 20
20 19 20 20 21 22 22 21 22 22 23 22 20 20 18 17 18 18 17 17 18 19 20 20 20 20 21 21 19 19 20 21 20 21 22 22 22 21 21 21 21 21 20 19
22 21 21 21 21 20 21 21 21 21 22 22 20 20 18 17 18 18 18 19 20 21 21 20 19 19 20 18 17 18 19 20 20 21 21 22 23 22 20 20 20 21 20 20
23 23 22 21 20 20 20 20 21 20 20 21 21 19 19 18 17 19 20 21 21 22 21 22 21 21 20 18 17 18 18 19 20 20 21 22 22 20 19 19 19 18 19 19
23 23 22 21 20 20 20 20 20 21 20 20 21 20 19 19 19 20 19 20 21 22 21 21 20 19 19 18 16 16 17 18 19 20 20 20 19 18 17 17 17 17 18 19
23 22 21 19 18 18 19 19 19 20 21 21 20 20 20 20 20 19 18 19 20 20 19 18 18 18 18 17 16 16 16 17 18 18 18 17 18 17 17 16 16 17 18 18
22 22 21 20 19 19 18 18 18 19 20 20 20 20 19 20 19 18 17 17 17 18 18 17 17 17 17 17 16 15 14 15 16 16 16 17 16 16 16 16 16 17 17 18
22 21 21 20 19 19 19 18 18 19 20 21 21 20 20 19 19 17 16 16 16 16 15 15 15 15 15 15 15 13 13 13 14 15 15 16 15 15 15 15 16 17 17 17
21 20 20 18 18 18 18 17 17 18 19 19 20 21 20 19 18 17 16 16 16 15 14 14 13 13 13 13 14 13 12 12 13 13 14 15 15 15 15 15 16 17 17 17
20 20 19 17 16 16 16 16 16 17 18 18 19 19 18 17 17 17 16 14 14 15 14 13 12 11 11 12 12 11 12 13 13 13 13 14 14 13 13 15 16 16 16 17
20 19 18 18 17 16 16 16 16 16 16 17 17 17 16 16 16 16 15 13 14 14 13 12 12 11 10 10 11 12 12 12 12 12 13 13 13 12 13 14 15 16 17 18
19 19 19 18 17 16 16 16 16 15 15 16 17 16 14 14 14 14 14 14 12 12 11 10 10 10 10 10 11 12 11 11 11 12 12 12 13 13 14 15 15 16 17 17
19 18 18 18 18 17 16 16 16 16 16 16 16 15 14 13 14 12 12 11 10 9 9 9 9 10 10 10 10 10 11 11 11 11 11 11 12 13 14 15 15 16 16 16
18 18 18 18 17 16 15 16 16 17 17 16 15 14 13 12 12 10 10 9 9 9 9 9 9 9 10 9 10 10 10 10 10 11 11 12 12 13 14 15 16 16 16 16
19 19 19 18 17 17 16 16 16 17 17 15 15 14 12 11 10 10 9 8 8 8 8 8 9 10 9 9 10 9 9 10 11 11 11 12 13 14 15 15 16 16 16 17
19 19 19 17 17 17 17 16 17 17 16 16 15 14 12 11 10 9 8 8 8 9 9 9 9 9 9 9 9 9 10 10 11 11 12 13 13 14 14 15 16 16 16 17
18 18 17 17 17 17 16 16 17 17 16 15 14 13 11 10 10 10 9 9 9 9 9 9 9 8 8 8 8 9 10 10 11 12 12 13 14 14 14 14 15 16 17 17
19 19 18 16 16 15 15 16 15 15 15 14 14 13 12 11 11 10 9 10 9 9 8 9 8 8 8 8 8 9 10 11 11 11 12 13 13 13 14 14 15 16 17 18
18 18 18 16 15 16 15 15 14 14 14 13 13 13 13 12 11 11 11 10 9 8 8 8 7 8 8 8 8 9 10 10 11 11 12 12 13 13 13 14 15 16 17 17

GEFSCGP_500_meanwind_216.txt.gz
Wind_Speed
7 7 8 10 11 13 15 16 17 18 19 19 19 19 19 19 19 19 21 21 21 21 21 21 21 21 21 21 21 21 21 20 21 22 22 21 20 19 19 19 20 20 21 21
8 10 11 12 13 15 16 18 18 19 20 21 21 21 21 21 22 22 20 20 20 20 21 21 21 20 21 21 22 21 21 20 20 20 20 20 19 19 19 19 19 21 21 21
10 12 13 14 15 16 17 18 19 20 20 21 22 20 21 22 22 21 21 20 20 20 20 20 20 20 21 22 21 20 20 18 18 18 19 18 18 18 18 19 19 20 20 21
13 14 15 15 16 18 18 19 21 21 21 22 23 23 21 22 23 23 22 21 20 20 20 20 21 22 22 22 20 19 19 19 19 19 19 18 18 19 19 20 21 21 20 21
14 15 16 17 18 19 20 21 22 22 22 23 24 25 22 22 23 23 22 21 22 22 22 22 22 22 23 22 21 19 20 20 19 19 20 20 20 19 19 21 21 22 22 22
15 16 18 19 20 21 22 23 24 24 23 24 24 24 22 22 22 22 21 20 21 22 22 22 22 23 23 22 21 20 20 20 20 20 20 21 20 20 20 21 21 22 21 21
17 18 19 19 20 22 23 24 25 26 25 24 22 23 22 22 22 22 21 21 21 21 21 22 23 22 22 22 21 20 20 20 20 20 21 21 21 22 22 22 22 22 22 22
17 18 19 20 21 23 24 25 26 27 27 25 22 21 21 22 22 22 21 20 20 19 19 21 22 21 21 21 20 20 20 21 21 21 21 21 21 22 22 22 23 23 22 22
18 20 21 21 21 23 24 24 25 26 25 24 22 21 21 21 22 22 21 20 20 20 19 20 20 20 20 20 19 20 21 21 20 21 21 21 21 21 21 22 22 21 21 22
19 20 20 21 21 22 23 24 24 23 23 21 20 20 21 21 21 20 21 20 20 19 19 19 19 18 19 19 19 19 19 19 20 20 20 20 20 20 21 20 20 21 21 22
19 20 20 20 20 21 22 22 22 21 20 20 19 19 20 21 21 21 21 21 20 20 20 19 18 18 18 18 18 18 18 18 18 19 20 19 19 20 20 20 20 20 21 21
19 19 19 19 20 21 21 20 20 19 19 19 19 18 18 19 21 21 21 20 21 20 20 20 19 18 18 17 17 17 17 18 18 17 18 18 18 19 20 20 20 20 21 21
19 20 20 20 19 19 19 19 19 18 18 19 19 18 18 19 20 19 18 19 19 19 19 18 17 17 16 16 16 16 15 17 17 17 17 18 18 19 19 19 19 20 20 20
19 20 21 21 20 18 17 17 18 18 19 19 18 18 18 18 18 18 17 16 17 16 16 16 15 15 14 15 15 14 14 14 15 15 16 17 17 17 17 17 18 18 19 19
20 20 21 21 19 17 16 16 17 17 18 19 18 17 17 17 17 17 17 16 14 14 14 14 14 13 13 13 13 12 12 13 13 14 15 16 15 15 15 16 16 17 17 18
21 21 21 19 17 16 16 16 18 18 18 19 19 19 18 17 17 16 15 14 13 13 13 13 13 12 12 12 11 11 11 11 13 14 13 13 14 14 14 15 16 16 16 16
21 21 20 18 16 16 16 17 17 17 19 19 19 19 19 18 17 16 15 13 12 12 13 13 12 11 11 10 10 10 11 12 12 13 13 13 13 14 15 16 16 16 15 15
21 20 19 17 16 16 17 17 18 18 19 20 19 19 18 18 16 15 14 13 12 12 12 12 11 10 11 11 10 11 12 12 12 13 13 12 12 13 14 15 15 16 16 15
20 19 18 18 17 17 17 18 19 19 19 19 18 18 17 16 15 14 13 12 12 11 11 10 10 11 11 10 11 11 11 11 12 12 13 13 13 13 14 15 15 16 16 16
18 18 19 19 18 18 18 19 20 20 19 18 18 16 15 15 14 13 12 12 11 11 11 11 11 11 11 11 11 11 11 11 12 12 13 14 14 14 14 15 15 15 15 16
18 18 18 18 18 18 19 20 21 20 19 18 17 16 15 15 14 13 13 12 12 11 11 11 12 12 12 12 12 12 11 12 12 13 13 14 14 14 14 15 14 15 16 17
19 18 18 18 18 19 19 20 19 19 18 18 17 17 16 15 15 14 13 13 12 11 12 12 12 12 12 12 12 12 12 12 13 13 14 14 14 14 15 15 15 16 16 17
19 18 18 18 18 19 19 19 18 17 17 17 17 17 16 16 15 14 14 13 12 12 12 12 12 12 12 12 13 12 12 12 12 13 14 14 14 15 15 15 16 16 17 18
19 19 19 19 19 19 18 17 18 18 18 18 18 18 17 16 15 15 14 13 12 11 11 11 11 11 12 12 11 11 11 12 12 13 13 14 14 15 15 16 17 17 18 19
20 20 20 20 20 19 18 18 18 18 18 17 18 18 17 16 16 15 14 13 12 12 11 11 11 12 11 11 11 11 12 12 12 13 13 14 14 15 16 16 17 17 18 19
20 21 21 21 20 20 19 18 18 18 18 17 17 18 17 16 15 14 14 13 12 12 12 11 11 11 11 11 11 11 12 12 12 13 13 14 14 15 16 16 17 17 18 19

GEFSCGP_500_meanwind_222.txt.gz
Wind_Speed
6 7 8 10 11 12 13 15 16 17 18 18 18 18 20 20 19 20 21 20 20 19 20 21 21 21 22 23 23 24 25 25 24 24 24 24 23 24 24 22 20 20 21 21
8 10 11 12 13 14 15 16 17 17 18 19 19 19 20 21 20 21 20 21 21 21 21 21 22 22 22 22 24 25 25 26 25 25 25 25 25 24 23 22 20 19 20 21
11 13 14 14 15 15 16 16 17 18 19 20 21 20 21 21 21 21 21 21 22 21 21 22 22 21 22 24 26 26 25 25 25 24 23 22 23 22 22 20 20 21 21 22
12 14 15 15 16 16 18 18 19 20 20 20 21 20 22 22 21 21 22 22 21 21 22 22 22 22 23 24 25 25 25 25 25 24 23 22 21 21 21 20 20 20 21 22
13 14 15 15 16 17 18 19 20 20 21 21 21 20 20 20 21 21 21 21 21 21 21 21 21 22 22 24 24 24 24 24 24 23 22 21 20 20 20 20 20 20 21 22
14 15 15 16 17 18 19 20 20 21 21 20 20 18 19 18 20 20 20 20 20 20 20 20 20 21 21 21 22 22 22 22 22 21 20 20 20 21 20 20 20 20 20 21
14 14 15 16 17 18 18 19 19 18 17 17 19 19 19 19 20 20 20 20 19 19 19 18 19 18 17 17 18 19 19 20 19 19 19 18 19 19 19 19 19 20 20 19
14 15 16 16 17 18 18 18 18 18 17 17 19 18 20 21 20 19 20 20 19 18 16 16 16 15 15 15 16 17 17 18 17 18 18 19 19 19 19 19 20 20 20 20
14 16 17 17 17 18 18 17 17 18 18 17 17 18 20 20 19 18 19 19 18 16 15 15 16 16 16 16 17 16 16 16 16 16 17 18 18 19 19 19 20 19 20 20
15 16 17 17 18 18 18 17 17 16 16 16 15 15 16 18 17 17 17 17 15 15 14 14 16 16 16 16 16 16 15 15 14 14 15 16 16 16 17 19 19 19 20 21
14 15 16 17 17 16 16 16 16 15 14 14 14 15 16 17 17 17 17 16 14 15 15 15 15 15 15 15 15 14 14 14 14 13 14 15 15 15 16 17 18 19 20 20
13 14 15 15 15 15 15 14 14 13 13 14 14 15 16 16 16 16 16 16 14 14 14 14 15 15 15 15 14 14 13 13 13 13 13 14 14 15 15 16 18 18 18 19
14 14 15 15 15 15 15 15 14 14 14 15 15 15 16 16 16 15 14 15 14 13 13 14 13 13 13 13 13 12 12 12 12 12 13 14 13 14 14 15 17 17 17 17
15 14 14 14 14 15 15 15 14 15 15 15 15 15 15 16 15 14 14 13 13 13 13 13 13 13 12 12 12 11 11 12 13 13 13 13 13 14 15 15 16 16 16 16
14 14 14 14 14 15 15 15 15 15 15 16 15 15 15 15 15 15 14 13 13 13 14 14 13 13 12 11 11 11 12 12 13 13 13 13 13 14 15 15 16 15 15 16
15 15 15 15 15 16 16 15 16 16 15 15 14 15 15 15 15 15 15 14 14 14 14 14 13 13 13 12 12 12 12 12 13 13 13 14 13 14 15 15 15 15 15 15
16 16 16 15 16 16 16 15 16 16 15 15 15 15 15 15 15 15 14 14 14 15 15 14 14 14 14 12 12 13 12 12 12 13 13 14 14 14 13 13 14 14 15 15
16 16 16 15 15 15 16 15 15 15 16 16 16 16 16 15 15 15 14 14 14 14 14 13 14 14 13 13 12 13 13 13 13 13 14 14 14 14 13 12 13 13 14 15
15 15 15 15 15 15 15 15 15 16 16 17 18 17 15 15 14 13 13 14 14 14 14 14 14 13 13 13 13 13 13 13 13 13 13 14 14 13 12 12 13 13 14 15
16 16 16 15 15 16 17 16 16 16 17 18 18 16 15 15 14 14 14 14 14 14 14 14 14 14 14 14 13 13 13 13 13 13 13 14 14 14 14 14 14 14 14 15
17 17 17 17 17 17 18 18 17 17 18 18 17 16 16 15 15 15 15 15 14 14 13 14 14 14 14 14 13 13 12 12 13 13 14 13 14 14 14 14 14 14 15 15
17 18 18 18 18 19 18 18 18 18 18 18 17 17 16 16 16 16 15 15 15 14 14 14 14 14 13 14 13 12 12 12 13 13 13 14 14 14 15 15 15 15 15 16
18 18 19 18 18 18 18 18 18 18 18 18 18 18 18 17 17 16 15 15 15 14 14 14 14 14 13 13 13 12 13 13 13 13 13 14 15 15 15 15 15 16 16 16
19 18 19 19 18 18 18 18 18 18 18 18 18 18 18 18 17 16 15 15 15 15 15 14 14 13 13 13 12 12 12 13 13 13 14 14 15 15 15 15 16 16 16 17
20 20 20 19 19 19 18 18 17 18 18 18 18 18 18 18 17 16 16 16 15 14 14 14 14 14 13 13 12 12 12 13 13 13 14 14 14 15 15 15 16 16 17 17
21 21 20 19 19 20 19 18 18 18 18 18 18 18 18 18 17 17 16 16 15 14 14 14 14 14 13 13 13 12 12 12 13 13 13 14 14 15 15 16 16 17 17 18

GEFSCGP_500_meanwind_228.txt.gz
Wind_Speed
4 6 7 7 9 10 12 13 14 14 15 16 18 18 19 20 20 22 23 23 23 23 23 24 24 23 23 23 24 24 25 25 25 25 26 26 26 26 26 27 27 26 25 24
6 7 9 10 11 13 15 15 16 16 17 17 19 20 19 21 21 23 24 23 24 25 25 25 25 24 23 23 24 25 25 26 25 25 26 26 27 26 26 26 26 26 25 24
8 8 10 12 14 15 14 16 17 17 17 18 20 20 20 21 22 23 24 25 26 26 26 26 25 23 23 24 24 25 25 25 25 25 25 25 25 25 25 24 25 24 24 24
10 11 12 14 15 16 15 16 16 17 16 16 16 18 20 21 21 23 23 24 26 25 25 25 24 24 24 24 24 24 24 24 24 24 24 24 24 24 24 24 23 22 22 23
9 11 13 14 15 15 15 15 14 14 14 13 14 17 18 21 22 23 25 25 24 24 25 24 23 23 24 23 23 23 22 22 22 22 22 23 23 23 23 22 22 22 22 21
8 11 13 13 13 14 14 14 14 14 14 14 14 15 19 22 21 23 24 24 23 24 23 22 22 23 22 21 21 20 20 19 19 20 21 22 22 22 22 21 21 21 21 21
9 11 14 15 14 14 13 13 13 13 12 14 15 16 20 22 21 23 23 22 22 22 21 21 21 20 20 19 18 18 18 18 18 19 20 20 21 22 21 20 20 21 21 20
10 11 13 15 14 15 13 13 12 13 13 14 13 16 20 21 21 22 21 21 22 22 22 22 21 19 18 18 17 16 17 17 18 19 19 19 20 19 18 18 19 19 20 20
11 12 13 15 14 14 13 13 12 13 13 13 14 16 18 18 20 21 21 21 21 22 21 21 20 18 18 17 16 16 16 17 18 19 19 19 17 17 17 17 17 18 19 20
12 12 12 14 14 12 13 13 12 12 13 13 14 16 18 20 21 21 22 22 22 21 20 19 19 18 18 17 16 16 16 17 18 19 18 17 16 16 17 18 18 18 18 18
12 13 12 12 13 13 13 12 12 13 13 14 15 17 18 20 20 21 22 22 21 21 20 19 19 19 18 17 17 17 17 17 17 16 16 16 16 16 17 17 17 16 16 16
13 14 13 11 12 13 13 12 13 14 14 14 16 17 18 19 20 20 21 21 21 21 20 18 19 19 18 17 17 17 17 16 16 16 15 15 15 16 16 16 15 15 15 17
14 14 13 11 11 12 14 13 13 14 14 14 16 16 18 18 19 19 20 20 19 19 17 18 19 18 17 16 16 16 16 16 16 15 15 15 15 15 15 15 15 15 16 16
13 13 12 11 11 12 13 13 13 14 14 14 15 16 18 18 19 19 19 19 19 19 18 18 18 17 17 15 15 15 16 16 16 15 15 16 16 15 15 15 15 16 16 17
14 14 13 13 13 12 12 13 13 13 14 15 15 16 17 18 18 19 19 19 18 18 18 18 17 16 16 16 16 16 16 16 16 16 16 16 15 15 14 14 15 16 16 17
14 14 14 13 13 13 13 13 14 14 14 15 15 16 18 18 18 18 18 17 17 18 18 18 17 16 15 17 17 17 16 16 16 16 16 16 15 15 15 16 16 16 17 17
15 15 15 13 12 13 13 14 15 15 15 15 16 17 18 18 18 17 18 18 18 19 18 18 17 15 16 18 17 17 16 16 16 17 16 16 15 15 15 15 16 17 17 17
16 16 15 14 14 14 14 15 16 16 16 16 16 17 18 18 17 17 18 18 18 18 18 18 17 17 17 17 17 17 16 17 17 16 16 16 15 15 15 15 16 17 17 17
16 16 16 15 14 15 14 16 16 16 16 16 17 18 18 17 17 17 17 17 18 18 19 18 18 18 17 17 16 17 16 16 16 16 16 15 16 15 16 16 16 16 17 16
17 17 17 16 15 16 16 18 18 18 18 17 18 18 18 18 18 17 17 18 18 18 19 18 18 18 17 16 16 17 16 16 16 16 15 16 16 16 16 16 16 17 17 15
19 18 18 17 17 17 17 19 19 18 18 18 19 19 19 19 19 19 18 18 19 18 18 18 18 17 17 17 17 16 16 16 16 16 16 16 16 17 17 16 17 17 17 16
19 20 19 19 18 19 20 20 20 19 20 20 20 20 19 19 19 19 19 19 18 18 18 18 17 17 17 17 17 16 16 16 16 16 16 17 17 17 17 17 17 17 17 17
21 21 20 20 20 20 21 21 22 22 22 21 21 20 20 20 20 20 20 19 19 19 19 18 17 18 18 17 17 16 16 16 16 17 17 17 17 17 18 17 17 17 17 17
22 22 22 21 21 21 21 22 22 23 23 22 22 21 21 20 20 21 21 21 21 20 20 18 18 18 18 18 17 16 16 16 16 16 17 17 17 17 17 18 18 17 17 18
24 24 23 23 23 22 22 23 23 24 24 23 23 22 22 21 21 21 22 22 22 21 20 19 18 18 18 18 17 16 16 16 16 17 17 17 17 17 17 18 18 18 18 18
26 26 25 24 24 24 24 24 24 24 24 23 23 22 22 22 22 22 22 21 21 20 20 20 19 18 18 17 17 17 16 17 17 17 16 16 18 17 18 18 18 18 19 18

GEFSCGP_500_meanwind_234.txt.gz
Wind_Speed
4 4 3 3 3 5 7 8 10 11 11 14 15 16 17 18 18 19 20 21 21 22 22 22 21 21 22 21 20 20 20 21 21 21 22 22 22 23 22 22 22 22 22 23
3 3 3 4 5 7 9 9 10 11 13 15 17 17 17 18 19 19 20 21 22 23 23 24 24 24 23 21 20 21 21 21 22 23 23 21 21 22 22 22 23 23 22 23
3 4 5 6 6 8 10 11 12 12 14 16 18 18 18 19 19 19 20 22 23 23 23 24 24 23 22 22 21 20 19 19 19 20 20 20 20 20 20 21 21 22 22 22
4 5 7 7 8 10 11 12 14 15 15 17 17 17 16 18 19 20 20 21 23 24 23 24 24 23 23 22 21 21 19 19 19 19 19 18 18 18 18 19 19 21 21 21
5 6 7 8 9 11 12 12 14 14 15 16 16 17 17 18 19 19 20 21 22 23 23 23 23 22 21 21 21 20 19 17 17 17 17 16 16 16 17 18 19 19 20 20
6 6 7 9 10 11 12 13 12 13 14 15 15 16 17 18 19 19 19 21 21 21 21 21 22 22 21 19 17 16 15 16 16 16 16 16 16 16 17 18 18 19 20 20
6 6 8 9 10 11 12 13 12 12 12 12 14 16 17 19 20 20 21 22 20 20 20 21 21 20 20 19 16 15 15 15 15 15 15 15 15 16 17 18 19 20 20 19
6 6 8 9 10 11 12 12 12 11 11 12 14 16 18 19 20 19 20 20 19 19 20 20 20 21 20 18 16 15 15 15 14 14 14 14 15 16 17 18 19 19 19 19
8 8 10 10 10 10 12 11 11 11 12 12 14 15 17 19 19 20 20 19 19 20 20 20 20 20 19 18 17 15 15 15 14 14 14 14 16 17 17 18 18 18 19 19
9 10 10 11 10 9 11 11 11 12 12 13 13 15 18 19 19 19 19 18 18 18 19 18 18 18 18 18 17 16 16 16 14 14 14 15 16 17 18 18 18 18 18 17
10 11 11 11 11 11 11 11 12 12 12 14 14 16 18 19 19 19 19 18 18 18 19 19 18 18 17 17 18 17 17 16 15 15 15 16 17 17 17 17 17 16 17 16
11 12 12 11 11 12 12 11 11 12 12 13 15 16 17 17 18 19 18 17 18 19 19 18 18 17 17 17 18 17 17 17 16 16 16 16 17 17 17 16 16 16 16 15
10 12 12 11 11 11 11 11 11 11 11 12 13 15 16 16 18 18 18 17 18 18 18 18 18 17 17 17 17 17 17 16 16 15 15 16 16 16 16 16 16 15 15 15
12 12 12 11 11 11 11 11 12 11 11 12 13 15 16 17 17 18 17 17 18 18 18 18 17 17 17 17 17 17 17 16 15 14 14 15 15 15 15 15 15 15 15 14
12 12 12 12 12 12 12 12 12 12 12 13 14 15 16 16 17 17 17 17 18 18 18 18 17 17 16 17 17 16 16 16 15 14 15 15 15 15 15 15 16 15 15 14
13 13 13 13 13 12 12 12 12 12 12 13 14 15 16 16 17 17 17 17 17 17 18 17 17 17 17 17 16 16 15 15 15 15 15 15 15 15 15 15 16 16 15 14
14 14 14 14 13 13 12 12 12 12 13 13 14 15 16 16 16 16 16 16 17 17 17 17 17 17 16 16 16 16 16 15 15 15 16 16 16 16 16 15 16 16 15 15
15 15 15 16 15 14 12 13 13 13 14 14 14 15 16 16 16 16 17 17 17 17 17 17 17 17 15 15 16 16 16 15 16 16 16 17 17 17 16 16 17 16 15 15
16 16 16 17 16 15 14 15 14 14 14 15 15 15 15 16 16 17 17 17 17 17 17 18 17 17 16 16 17 17 16 16 17 17 17 17 17 17 17 16 16 16 16 16
17 17 17 17 17 16 15 15 15 15 15 15 16 16 17 17 16 16 17 17 17 17 17 18 18 18 17 17 17 16 17 17 18 18 18 18 17 17 17 17 16 17 17 16
18 17 17 18 17 16 16 16 17 17 16 16 16 17 17 17 17 17 17 17 17 17 17 18 18 18 18 18 17 17 18 18 19 19 18 18 17 17 17 17 17 18 18 18
20 19 18 18 19 18 18 18 17 17 17 18 18 18 18 18 17 17 17 17 17 18 18 18 18 18 18 18 18 18 18 19 19 19 18 18 17 18 18 18 18 19 18 19
21 20 19 19 19 19 19 18 19 19 19 19 20 20 19 19 18 18 18 18 19 19 18 18 19 19 18 18 19 19 19 19 19 18 18 17 17 18 19 19 19 19 19 18
21 20 20 20 20 20 20 20 20 21 21 21 21 21 20 20 19 19 19 19 19 19 19 19 20 20 20 19 19 19 19 19 18 18 18 18 18 18 19 19 18 18 18 18
22 22 21 21 21 21 21 20 21 21 21 21 21 21 21 20 20 20 20 20 20 20 20 20 20 20 20 19 19 19 19 18 18 18 18 18 18 18 18 18 18 17 17 18
24 24 24 23 22 23 22 22 22 22 22 21 21 21 21 21 21 21 21 21 21 21 21 20 20 20 20 19 19 19 19 19 18 18 18 18 17 18 17 17 17 17 18 18

GEFSCGP_500_meanwind_240.txt.gz
Wind_Speed
7 8 8 9 9 9 9 11 11 11 12 14 14 15 15 16 17 18 19 19 19 19 18 18 19 20 20 19 19 19 19 19 19 18 18 20 20 20 21 22 22 21 21 22
8 8 8 10 11 10 11 12 13 12 13 14 15 16 16 17 18 19 20 20 19 19 19 19 20 21 21 20 19 19 19 19 18 17 18 20 20 19 20 20 20 20 21 22
8 8 9 10 11 11 11 13 14 14 14 15 16 16 17 18 17 19 20 19 19 19 20 20 20 21 20 20 20 20 19 18 18 19 20 20 18 18 18 19 19 20 21 21
8 8 9 9 10 11 12 13 14 15 15 15 16 17 17 17 17 18 19 19 20 20 21 20 21 20 20 20 20 20 19 18 18 19 20 19 18 18 18 19 19 20 20 20
8 9 9 10 10 12 13 14 14 15 15 16 16 17 16 16 17 18 19 19 21 22 21 21 20 20 19 19 20 19 19 19 19 19 19 19 18 17 18 18 19 20 19 19
7 8 9 10 11 12 13 14 14 14 15 15 15 17 16 16 17 18 20 20 20 21 21 21 21 19 19 19 20 20 19 18 18 19 19 19 17 17 17 18 18 18 19 19
8 9 10 11 12 13 13 14 15 15 15 15 16 16 16 17 18 19 20 20 20 21 21 21 20 19 19 19 20 19 17 17 17 17 17 17 17 17 16 17 17 17 17 18
8 9 11 12 13 13 13 13 14 15 16 16 15 15 16 17 18 20 20 20 19 20 20 20 20 19 18 19 18 18 17 16 16 16 16 16 16 16 16 16 16 17 17 18
9 10 11 12 13 13 13 13 14 15 15 16 16 16 16 17 18 19 19 18 18 19 19 19 19 19 19 18 18 18 17 16 16 16 16 16 16 15 16 16 17 18 18 19
10 10 10 11 12 12 12 13 14 15 16 16 16 16 17 17 16 17 18 17 17 18 18 19 18 18 19 18 17 17 17 17 16 16 16 15 15 15 16 16 18 19 19 20
10 10 10 10 11 11 11 12 13 14 15 17 17 16 16 17 17 17 17 16 17 18 18 18 18 18 18 17 16 16 17 16 16 15 14 15 15 15 16 17 18 19 20 20
10 11 10 11 11 11 12 13 14 15 15 16 16 15 15 16 16 17 16 16 17 17 18 18 18 18 17 16 15 15 16 15 15 15 15 15 15 16 17 18 19 20 20 19
12 12 12 12 12 12 13 13 14 14 15 15 16 14 14 15 16 17 16 16 17 17 18 18 18 17 16 15 15 15 15 15 15 15 16 17 17 18 19 19 20 20 20 19
14 14 13 13 13 13 13 13 14 14 15 15 15 14 15 15 16 16 16 16 16 17 18 18 17 15 15 16 16 15 15 16 17 18 18 18 19 19 20 20 20 19 19 19
15 15 14 13 14 14 14 14 15 15 15 16 16 15 15 16 16 17 16 16 17 17 17 17 16 15 15 15 16 16 16 17 18 19 20 20 20 21 21 21 20 19 18 18
15 15 15 15 15 15 14 14 15 15 16 16 15 16 16 17 17 17 17 16 16 16 16 16 16 16 16 16 17 17 17 17 18 20 21 21 21 21 20 19 19 18 18 17
16 16 16 16 16 16 15 15 15 16 16 16 16 16 17 17 17 17 17 16 16 16 16 16 16 16 17 17 18 18 19 19 20 21 22 22 21 20 19 19 19 18 18 18
17 17 17 17 16 16 15 15 15 16 16 17 17 17 17 17 17 17 17 17 16 16 16 16 16 16 17 17 18 19 19 20 21 21 21 20 20 19 18 19 19 19 18 18
18 18 18 18 18 18 17 16 17 18 18 17 17 18 18 18 18 17 17 17 16 16 16 17 17 18 18 18 18 19 20 21 21 21 21 20 20 19 19 20 20 20 19 19
20 20 20 20 19 19 19 18 18 19 18 18 18 18 18 18 18 17 16 16 16 16 16 17 18 19 19 19 19 20 21 21 21 21 21 21 20 20 20 20 20 20 19 19
21 20 20 20 20 20 19 19 20 19 19 18 18 18 19 19 17 16 16 16 16 17 17 18 18 19 19 19 20 20 21 21 21 21 21 20 20 21 21 21 21 20 20 20
21 21 21 20 21 21 20 19 19 19 19 19 19 18 18 17 17 16 16 17 17 18 18 18 19 19 20 20 20 21 21 21 21 20 20 20 21 22 22 22 21 20 20 20
23 22 22 22 22 21 20 20 20 20 20 19 19 19 18 18 17 17 17 17 18 18 19 19 20 21 21 21 21 22 22 21 20 20 21 21 21 22 23 23 22 21 20 20
25 24 24 24 23 23 22 22 21 21 21 20 20 20 20 19 18 18 19 18 18 19 19 20 21 22 22 22 22 22 22 21 20 20 21 21 21 22 22 22 22 21 20 20
27 26 26 25 25 24 24 23 22 22 22 21 21 21 20 20 19 19 19 19 19 20 20 21 22 23 23 23 23 23 22 21 20 20 21 21 21 21 21 22 21 21 21 21
28 27 27 26 26 25 25 25 24 23 23 23 22 22 21 21 20 20 20 21 21 21 22 22 23 23 24 24 24 23 22 20 20 20 20 21 21 21 22 22 22 22 22 22